GFSFLT1_con_3kmhel_003.txt.gz
Helicity
37 27 27 36 38 47 38 33 33 43 39 28 29 22 7 11 25 32 18 30 25 40 45 43 37 44 40 48 44 47 39 42 46
45 32 33 43 50 51 44 34 33 47 45 33 33 30 1 7 24 20 23 27 28 34 39 29 28 25 32 44 29 31 34 33 39
46 39 41 53 52 52 47 42 39 43 44 37 43 38 2 27 14 15 30 31 27 27 32 39 20 18 22 36 32 26 21 20 24
56 43 55 68 60 54 50 46 45 42 44 41 45 45 5 -3 7 15 31 35 30 29 26 23 16 14 14 17 27 23 20 19 21
46 61 68 56 52 49 51 53 55 52 47 32 41 53 18 4 17 11 31 38 37 29 22 10 8 -0 -4 -4 5 14 15 11 18
59 99 74 48 43 42 46 52 55 53 46 34 41 54 49 21 20 22 51 29 34 33 20 8 -0 -7 -14 -17 -6 -6 -1 6 11
48 88 67 53 55 57 63 61 52 50 51 51 53 47 49 27 34 38 60 33 33 34 17 6 -6 -7 -16 -26 -19 -11 -8 -13 -8
43 38 43 41 60 54 76 78 67 68 71 69 62 59 62 46 38 50 64 44 32 33 21 10 -1 -8 -11 -5 -5 -17 -14 -16 -14
31 30 41 45 60 58 73 80 84 78 67 60 69 61 68 68 58 51 82 53 36 35 32 20 10 3 1 -3 2 5 6 10 9
41 38 47 53 51 60 68 71 79 80 74 72 71 77 75 68 68 67 80 72 54 44 42 37 23 13 12 15 21 15 24 28 24
59 59 63 70 72 86 90 81 94 109 96 112 83 87 70 76 72 71 80 94 71 54 52 52 47 31 23 22 27 36 37 35 36
84 83 90 86 80 81 96 104 105 120 128 131 125 110 87 95 91 86 85 98 102 86 68 70 68 64 59 50 47 52 61 62 55
91 102 108 107 104 105 119 130 134 142 151 150 140 132 130 117 92 97 99 117 118 112 96 90 81 86 87 83 78 79 89 88 86
124 126 133 119 141 149 164 162 173 179 181 170 169 161 170 159 142 140 124 130 136 156 151 133 126 127 108 105 104 99 93 88 78
171 166 148 147 181 207 219 227 228 218 212 188 192 193 182 177 183 163 159 151 150 169 176 182 195 159 117 101 88 83 72 70 67
210 229 192 197 219 222 237 243 244 254 246 218 225 225 209 178 193 194 186 178 170 174 204 222 198 189 133 112 85 66 60 50 55
213 228 233 222 248 237 239 253 298 281 253 267 230 234 192 209 200 211 216 176 196 203 213 186 186 187 176 161 110 91 73 73 76
176 192 218 231 244 275 267 273 287 300 281 292 339 347 312 176 231 274 232 175 185 186 183 175 165 164 164 152 142 135 105 87 88
164 162 196 218 247 241 257 262 265 293 314 320 350 333 292 331 290 239 180 166 174 158 161 166 162 172 167 160 159 160 144 109 89
143 160 186 206 230 214 220 227 231 262 318 316 388 406 380 311 312 288 261 260 245 195 163 176 157 175 191 201 190 152 129 110 109

GFSFLT1_con_3kmhel_006.txt.gz
Helicity
37 29 29 53 50 59 58 62 66 59 56 47 44 31 13 23 38 41 58 51 41 55 58 61 70 73 65 53 40 31 27 38 41
47 31 35 44 51 57 58 57 56 56 63 53 46 33 21 45 39 57 70 40 46 53 50 50 50 47 51 40 33 27 26 30 30
40 29 36 58 52 57 58 58 55 57 59 49 52 44 26 44 60 78 57 50 43 42 43 49 47 43 42 27 18 22 18 20 20
52 29 50 68 58 58 60 62 67 66 63 57 62 55 22 46 59 71 69 47 37 39 39 48 44 30 21 20 10 5 8 12 14
60 62 75 71 62 56 58 62 72 73 68 66 65 66 40 29 52 101 83 68 44 38 38 41 34 16 3 9 9 -5 -3 3 6
43 74 97 72 63 58 65 72 79 77 66 67 65 75 54 49 57 95 105 76 52 48 46 47 36 12 1 1 -6 -10 -8 -7 -6
90 135 111 87 76 68 69 77 76 74 61 82 79 82 59 62 74 104 102 79 54 49 46 49 44 24 10 1 -8 -15 -10 -8 -8
136 145 112 89 79 78 76 80 87 96 87 113 119 106 80 72 78 102 111 88 61 48 43 43 47 40 23 9 3 1 -4 -0 -4
113 98 111 97 86 69 108 100 111 109 123 99 102 117 116 106 106 116 131 104 82 65 50 46 47 43 42 25 17 14 13 17 16
86 73 82 121 104 90 87 99 80 135 144 137 131 126 126 126 130 128 123 112 105 87 71 63 57 55 52 51 41 34 33 37 37
104 107 94 118 120 81 108 125 112 122 165 175 181 181 175 153 142 147 144 141 129 107 89 79 73 67 67 67 70 69 67 64 62
138 129 120 135 144 135 135 127 127 142 151 179 197 208 203 200 194 189 180 171 148 137 108 97 93 88 86 85 86 88 107 117 111
159 169 173 174 190 173 180 187 190 182 184 190 202 216 212 203 214 223 231 229 231 185 142 131 113 101 95 96 96 97 114 127 124
238 238 232 225 217 235 227 222 245 236 229 222 219 223 242 227 226 257 253 260 254 262 213 167 153 136 122 107 99 101 112 123 116
291 302 286 297 282 260 280 275 266 271 279 247 246 242 231 250 264 278 264 276 283 294 272 259 231 170 146 121 102 95 87 94 90
317 340 324 318 311 285 292 300 298 279 303 280 264 226 230 285 309 303 279 291 305 296 295 292 280 259 167 130 104 79 73 63 58
322 349 360 343 322 301 317 328 330 294 324 303 306 259 232 277 267 260 281 271 279 270 253 263 295 290 251 193 113 91 77 56 49
221 240 289 301 306 282 303 336 332 317 308 323 305 298 289 234 208 193 198 218 315 297 260 227 221 223 204 164 140 124 102 72 68
232 245 257 285 318 292 293 327 351 313 298 321 321 299 332 313 264 278 297 295 289 274 230 189 186 175 192 168 166 148 119 86 82
235 250 238 227 267 281 293 280 295 310 314 315 329 317 309 303 337 310 336 406 433 350 254 236 243 212 201 208 185 149 146 128 107

GFSFLT1_con_3kmhel_009.txt.gz
Helicity
39 49 51 61 65 69 73 87 79 74 53 47 70 61 51 65 64 39 61 45 59 58 61 59 66 65 70 76 71 64 51 48 50
49 47 55 58 63 68 73 79 77 63 53 48 61 47 50 66 47 40 64 64 64 61 58 51 49 58 53 54 49 50 34 29 29
48 35 34 60 54 58 60 65 61 56 51 46 55 36 32 57 68 61 67 70 62 61 60 47 38 40 43 35 30 33 20 18 23
62 40 37 65 57 54 52 55 65 67 65 58 53 36 24 44 73 35 65 76 59 58 54 45 39 40 38 28 17 12 12 10 9
56 59 66 71 58 49 49 57 67 71 65 65 61 49 24 34 57 45 74 77 66 64 59 47 39 44 41 33 19 8 3 3 3
55 67 75 68 61 59 61 65 69 69 69 70 74 84 62 41 45 66 77 79 72 70 63 51 40 37 39 36 28 13 5 -1 3
48 69 85 84 80 72 60 63 74 80 80 71 78 86 91 78 76 80 95 88 78 75 69 61 51 42 37 36 34 26 15 11 5
66 127 123 115 85 93 75 78 95 96 90 83 88 109 119 103 109 126 125 111 93 83 76 72 64 57 48 42 39 38 34 20 16
106 134 125 123 92 84 84 93 96 110 104 114 113 133 152 148 132 133 159 142 118 104 90 85 79 73 66 60 55 53 47 47 41
116 139 141 134 129 110 111 97 99 108 111 117 159 143 140 156 176 181 167 162 136 121 115 109 98 90 84 77 72 68 71 64 57
161 149 147 148 169 158 146 147 139 132 144 125 137 143 150 165 180 203 201 177 170 138 120 112 109 104 96 96 96 94 83 83 77
211 187 175 181 193 188 176 160 169 153 141 167 167 166 158 166 183 204 214 218 184 182 134 121 115 110 105 101 100 112 120 112 113
219 220 215 233 229 237 236 206 189 200 193 182 175 183 193 199 202 204 223 239 241 213 186 166 144 127 111 102 98 98 119 129 128
272 255 231 262 274 280 288 263 257 224 205 192 173 183 202 215 224 240 248 259 261 268 227 216 190 164 141 100 95 96 111 130 140
295 284 256 284 277 274 303 269 275 250 247 219 208 216 204 224 244 231 241 245 277 281 265 255 233 195 166 122 91 88 106 106 120
298 287 301 340 336 318 335 303 286 259 333 272 228 202 202 223 254 253 264 268 298 303 302 317 301 267 197 165 123 91 61 75 87
307 297 321 367 359 341 359 353 310 292 357 321 315 231 164 241 242 242 249 254 289 306 317 317 323 306 282 228 166 117 80 58 51
273 270 299 321 385 345 342 336 320 290 282 337 339 333 277 198 154 150 170 177 203 226 238 264 264 263 277 242 188 141 96 39 47
210 228 287 305 338 311 318 339 339 309 274 321 361 322 338 280 199 170 199 200 215 266 285 279 299 306 306 262 236 169 106 65 48
119 166 240 294 301 292 296 284 265 268 269 279 303 319 312 272 309 282 146 232 259 267 293 321 348 357 335 301 249 175 115 66 54

GFSFLT1_con_3kmhel_012.txt.gz
Helicity
39 44 50 49 56 54 61 76 75 71 74 59 52 39 42 61 57 45 62 48 49 51 56 66 69 68 64 60 54 48 44 41 44
45 39 49 53 52 56 55 65 70 64 55 46 60 46 57 67 65 41 45 44 57 50 54 56 56 60 51 51 47 44 38 33 33
59 34 38 51 54 57 57 55 61 63 52 46 48 36 52 75 62 61 41 49 57 55 54 52 55 54 50 45 45 44 39 31 27
47 34 38 46 49 48 49 50 53 58 59 50 48 34 39 79 75 66 45 62 59 60 64 65 62 59 49 43 41 40 38 29 21
48 40 31 50 52 45 43 46 51 59 61 60 52 36 35 51 82 57 52 60 66 65 62 64 65 60 51 44 41 40 39 32 22
50 52 35 59 58 49 45 46 52 61 69 66 62 55 43 49 85 75 53 68 75 78 79 73 70 68 62 54 45 42 36 35 30
49 40 45 49 62 67 57 44 47 58 81 78 72 68 56 73 72 96 73 69 75 76 85 84 81 75 71 65 55 49 43 36 37
38 43 58 81 74 93 77 68 71 85 85 71 76 70 80 89 78 94 83 78 74 81 90 91 87 82 76 73 66 60 57 52 49
32 68 82 120 124 114 93 89 74 75 82 85 77 85 99 116 107 94 98 98 98 89 97 101 97 89 85 81 75 72 67 66 67
71 90 120 146 160 151 117 105 94 92 86 95 107 93 103 123 137 136 124 118 116 89 92 100 101 101 94 89 86 84 82 81 77
101 126 153 168 181 169 163 153 147 137 126 103 122 121 115 141 152 164 149 140 154 133 105 99 101 98 95 93 98 107 97 88 90
138 162 180 181 195 186 189 179 172 171 156 154 145 151 155 154 158 173 187 181 162 165 130 111 103 103 92 92 98 115 124 121 112
201 208 200 202 206 223 246 241 229 238 233 188 193 176 178 166 168 171 190 203 209 180 157 143 125 122 110 96 90 99 112 119 124
249 255 249 263 255 247 268 246 274 229 250 236 197 193 190 184 186 197 208 223 233 231 184 175 164 147 126 88 67 69 82 93 101
242 236 245 287 265 235 263 252 276 263 234 210 182 180 196 191 204 199 199 215 240 257 234 222 200 159 152 124 89 83 89 83 79
233 231 245 297 281 250 265 282 253 252 297 256 184 181 184 188 214 217 216 219 235 236 242 243 232 226 181 165 148 139 122 111 107
199 216 229 273 289 267 275 316 280 284 310 293 242 218 124 169 189 212 206 199 223 225 224 218 218 253 288 274 223 186 151 100 74
143 174 224 246 317 288 293 327 328 278 237 285 262 254 267 205 126 107 89 108 152 192 175 200 216 223 259 255 254 227 182 120 67
113 126 148 180 218 250 266 284 318 297 257 225 282 254 276 269 206 156 125 128 154 184 205 213 214 223 235 216 212 204 203 153 91
187 186 166 148 155 174 202 205 248 273 268 252 247 270 275 275 312 261 158 142 181 201 204 200 200 191 206 242 231 207 186 147 96

GFSFLT1_con_3kmhel_015.txt.gz
Helicity
18 18 26 37 40 40 34 48 41 42 64 48 49 47 60 41 26 50 48 50 41 59 63 67 60 56 65 64 57 48 41 36 36
27 30 26 35 36 38 40 42 42 41 38 33 33 33 43 38 31 45 42 41 50 59 60 65 56 53 57 61 57 53 46 42 39
39 31 25 25 32 33 35 33 35 43 39 34 35 26 19 22 12 26 35 33 40 55 61 64 60 63 60 60 57 54 50 42 41
27 32 28 25 28 30 31 30 34 38 36 35 37 27 25 38 21 16 39 30 34 52 57 56 57 61 61 60 54 50 45 39 35
31 44 33 20 35 31 23 22 23 22 24 25 28 28 33 53 36 25 40 40 31 40 53 52 53 58 59 57 52 50 45 39 35
35 33 24 3 20 28 21 20 17 19 21 23 20 31 45 53 56 39 32 39 42 40 52 56 52 52 54 56 55 54 52 46 40
42 26 6 6 9 21 24 23 19 28 63 60 36 55 56 63 65 73 32 31 42 43 49 64 62 58 55 56 54 54 54 51 47
46 31 20 36 37 56 56 61 72 74 80 75 73 58 51 70 71 76 54 48 52 55 51 59 66 61 59 61 60 59 58 56 53
31 40 37 63 80 87 96 100 81 71 72 81 77 75 72 79 86 79 51 50 57 52 50 53 71 69 60 62 61 63 63 63 61
23 19 29 46 83 115 124 125 123 114 103 97 111 88 85 88 98 105 74 68 76 71 59 59 62 70 67 59 58 67 68 67 69
88 85 97 109 132 130 154 153 142 139 135 111 121 121 114 116 121 130 116 78 88 98 81 68 59 63 72 76 84 87 87 77 78
152 162 161 177 211 182 184 183 186 176 163 154 145 147 141 137 131 141 149 128 99 89 87 89 87 85 75 70 84 95 86 89 96
179 169 172 202 243 234 230 212 201 195 203 193 207 194 173 174 179 174 181 175 180 130 97 124 119 111 99 72 68 76 87 86 91
215 216 191 225 227 244 257 227 248 201 215 233 208 230 228 199 190 184 198 216 216 227 173 171 158 146 126 84 55 60 73 92 109
213 210 219 247 241 229 276 257 273 261 230 229 222 211 215 231 227 200 187 197 211 233 217 231 216 155 138 113 81 76 85 93 104
144 161 172 204 228 217 236 282 250 254 279 229 203 186 175 192 212 189 194 188 210 200 219 243 226 202 143 124 88 80 83 88 101
82 111 124 137 174 176 185 221 210 242 285 275 221 187 134 154 153 154 152 149 158 165 162 181 200 203 202 193 159 125 74 55 71
143 135 119 113 135 133 125 158 202 183 192 250 252 254 210 204 181 186 196 174 197 190 189 173 188 183 192 181 163 141 133 77 43
161 156 154 142 123 117 115 126 172 206 206 186 224 216 228 243 201 203 224 209 232 249 282 260 225 224 244 208 188 184 168 82 53
142 152 145 149 139 148 152 151 137 144 160 163 184 184 249 234 293 188 177 191 225 224 242 238 218 230 275 290 257 191 152 87 66

GFSFLT1_con_3kmhel_018.txt.gz
Helicity
16 7 5 14 9 7 -9 2 20 24 29 39 55 38 38 26 5 -3 14 19 5 23 38 48 56 54 57 59 55 55 45 37 34
34 7 15 15 8 6 0 -2 7 12 16 22 29 23 38 23 3 -1 10 1 3 17 32 42 52 54 49 48 48 47 43 38 32
12 30 13 13 7 6 1 -2 0 7 12 15 14 19 37 30 15 10 22 15 11 10 30 37 39 39 44 44 42 41 37 35 34
6 23 16 8 4 12 14 7 5 4 4 3 10 10 10 30 24 23 27 17 13 5 22 32 38 44 45 41 41 40 35 34 34
6 5 28 6 -7 -16 2 7 4 9 7 6 3 14 13 30 27 25 23 18 20 11 14 30 31 33 36 36 33 33 33 31 31
23 13 8 -3 -8 -14 -10 -1 4 13 22 15 14 17 46 47 47 38 13 12 20 21 3 9 26 28 32 33 34 32 29 28 30
34 22 1 -12 -10 0 -1 0 9 34 64 53 28 52 49 47 57 64 9 2 9 15 15 10 21 33 29 31 33 32 30 28 28
37 35 29 29 21 40 43 57 75 77 87 83 76 67 62 70 65 54 17 10 11 20 19 22 25 33 37 27 28 31 33 32 32
56 59 49 52 62 66 79 96 98 98 97 104 113 105 103 101 91 81 28 21 18 20 27 30 31 32 41 47 35 36 40 36 39
92 81 80 81 83 98 95 100 106 123 112 112 135 130 131 133 136 129 65 32 24 23 24 33 41 39 42 58 71 68 59 51 52
115 102 103 117 141 141 149 147 136 141 150 129 151 155 156 151 160 163 144 76 56 58 50 54 56 57 51 58 71 95 107 99 89
132 139 145 152 173 162 172 175 181 173 182 161 158 170 173 178 180 191 189 172 116 89 73 69 70 78 64 54 61 60 73 73 75
156 168 174 179 194 193 186 174 179 197 208 202 205 206 184 181 189 196 199 189 191 148 95 91 91 95 87 73 69 76 75 76 81
156 155 140 143 161 188 189 168 203 159 160 186 178 184 206 201 196 203 223 233 231 236 172 163 148 142 125 94 76 83 88 90 94
120 137 124 112 111 109 123 134 132 179 158 157 156 181 199 194 216 212 216 227 222 228 202 204 196 145 130 109 95 98 111 115 112
86 89 77 77 91 89 88 101 119 124 128 144 132 134 140 179 208 195 209 180 195 197 201 220 220 225 144 122 80 64 83 103 106
139 126 112 105 85 83 95 114 112 122 136 161 140 133 117 146 140 169 214 199 205 190 208 198 213 222 230 216 143 103 55 46 57
121 105 88 86 82 75 76 79 74 80 94 118 153 163 165 128 154 187 198 200 225 229 226 231 253 246 256 228 191 152 111 51 56
103 96 94 82 76 92 93 101 101 116 109 114 119 141 171 173 130 136 164 215 207 204 252 243 242 243 260 243 235 204 175 95 72
73 74 66 72 69 80 90 109 117 108 135 143 155 165 175 183 208 180 191 206 189 189 151 168 171 188 241 237 276 214 186 114 89

GFSFLT1_con_3kmhel_021.txt.gz
Helicity
18 24 18 19 12 5 5 3 14 19 10 0 19 19 21 35 9 6 3 19 4 -8 5 4 17 26 37 43 39 41 38 24 17
18 27 25 22 17 7 4 8 6 5 4 -2 -1 -11 10 17 1 8 17 23 7 -2 8 14 15 19 23 31 31 32 31 30 24
16 26 26 18 17 9 7 12 8 9 2 -2 2 -2 10 25 14 11 21 15 5 2 -2 19 15 15 17 20 28 26 23 18 16
18 25 32 23 15 6 6 16 16 15 9 6 3 5 9 11 20 21 29 27 3 -1 -6 9 17 16 16 20 21 27 25 21 15
3 20 31 11 5 -5 -9 -1 13 7 12 17 17 21 15 14 25 30 36 21 11 1 1 -8 16 20 18 20 21 21 24 23 16
28 26 14 10 6 2 -4 -6 4 14 31 41 35 37 34 25 35 38 28 17 8 12 10 9 -1 15 27 20 21 24 21 22 21
39 37 26 19 17 18 14 11 13 28 52 61 51 54 46 45 43 46 27 16 11 11 14 13 11 5 22 32 24 24 25 24 23
39 40 37 39 33 38 33 36 48 43 53 63 65 61 59 72 72 61 44 27 15 12 15 19 19 17 19 32 38 32 30 30 31
40 50 40 43 41 40 40 51 45 46 42 50 54 55 66 82 89 83 63 47 38 36 36 35 34 31 32 32 47 68 71 58 48
50 54 55 53 55 60 61 61 59 54 48 53 64 68 71 73 100 99 85 62 47 36 38 46 48 44 44 51 51 56 84 106 95
79 74 76 79 83 80 81 83 85 82 77 75 77 83 83 84 86 99 90 80 68 58 48 41 45 47 47 54 68 65 61 84 107
87 96 101 101 100 90 93 92 96 92 84 75 79 87 85 100 94 103 114 101 95 94 82 74 72 69 64 61 72 83 77 77 102
72 83 82 72 66 67 71 75 90 105 103 105 105 113 113 99 95 113 125 132 147 147 109 105 104 106 98 90 85 100 109 105 99
62 62 59 59 55 54 53 60 64 67 68 67 74 85 109 93 96 94 102 114 154 176 143 147 139 118 99 92 99 116 127 129 132
80 77 73 68 55 45 41 40 54 61 67 70 83 87 95 98 105 96 98 93 98 113 124 144 154 115 86 51 49 76 114 128 133
120 100 105 98 80 72 70 64 61 56 48 67 55 54 57 41 50 100 114 106 106 103 125 154 161 152 127 114 86 69 51 63 91
114 102 89 92 82 97 94 88 59 56 69 58 66 27 50 24 58 76 91 87 99 109 108 126 127 130 143 153 174 149 94 86 71
99 87 72 70 61 57 56 59 60 36 44 77 64 67 114 106 114 114 112 97 103 95 80 83 91 102 115 139 164 147 143 104 81
82 71 61 53 40 58 54 65 70 87 112 107 130 146 157 163 80 135 190 143 191 180 129 100 68 29 54 68 76 105 158 127 69
59 44 35 37 30 50 69 85 90 75 81 86 92 103 123 118 185 122 161 118 97 127 130 109 125 97 56 54 58 54 100 59 43

GFSFLT1_con_3kmhel_024.txt.gz
Helicity
19 26 31 39 41 42 51 46 36 44 49 44 26 27 18 30 4 0 -6 -1 14 26 10 16 6 4 5 6 10 9 18 16 14
24 39 39 48 44 44 43 41 39 28 22 21 16 13 21 23 12 14 13 15 19 13 14 23 21 17 16 14 18 14 16 15 16
23 35 48 40 42 40 40 36 38 29 24 22 19 18 24 19 20 24 23 24 17 13 19 13 31 25 24 19 16 20 18 15 16
26 48 43 34 34 32 35 27 26 29 26 27 26 29 25 24 28 28 41 48 32 22 13 21 24 32 28 22 18 15 18 18 19
14 15 31 29 20 19 15 8 13 18 20 25 35 47 43 23 25 40 47 52 35 28 27 18 24 23 35 32 30 28 21 22 22
10 31 26 24 18 14 8 1 -7 3 12 28 43 46 29 24 43 51 66 64 33 32 32 34 29 27 27 40 40 35 35 31 29
15 22 33 19 16 13 9 5 7 18 18 35 63 37 25 40 41 48 70 52 35 35 37 40 41 34 36 34 43 48 41 41 40
21 23 24 25 37 24 24 26 28 22 28 32 36 40 41 54 59 56 79 46 29 30 35 39 41 43 41 39 38 53 66 55 54
27 38 31 32 34 33 38 43 36 35 33 31 35 41 54 68 75 70 103 80 43 38 37 36 38 40 40 41 47 52 62 91 97
52 52 54 55 54 61 65 62 65 64 62 63 62 62 66 70 101 109 119 137 94 65 61 56 50 49 50 57 69 70 67 73 99
85 80 73 72 71 71 67 63 64 62 61 72 72 73 82 87 96 119 116 151 134 103 80 82 84 82 74 70 90 96 94 89 90
71 68 65 66 67 61 64 62 67 66 69 64 69 78 76 83 81 92 105 104 133 130 80 69 79 85 84 79 93 114 123 122 124
69 68 66 75 74 72 68 69 69 62 60 59 69 81 82 79 83 94 100 99 100 109 77 71 61 55 63 69 69 93 112 121 125
87 94 99 94 82 75 71 60 56 55 60 72 75 77 80 73 77 70 75 75 88 101 87 106 101 114 99 73 65 65 82 102 116
131 125 118 96 86 87 83 78 73 66 68 74 78 83 85 90 100 102 118 110 107 104 99 104 108 89 81 101 102 89 82 86 85
143 113 112 109 97 91 85 82 77 72 82 75 78 65 -6 12 44 93 102 68 76 68 77 108 117 120 100 82 73 105 116 114 117
115 104 94 94 78 79 75 71 59 60 73 53 44 12 35 55 216 117 81 84 98 82 108 104 125 110 123 105 79 81 90 106 112
99 87 72 67 58 59 57 60 53 54 61 88 72 74 95 89 45 112 60 129 160 155 107 143 123 90 100 92 90 61 29 31 43
85 72 59 49 37 48 44 57 68 88 98 95 97 110 117 116 70 115 142 31 150 118 103 110 143 141 129 160 144 109 54 43 51
66 46 35 34 30 50 61 72 75 65 73 73 75 79 80 85 120 122 143 118 121 135 131 126 155 114 109 137 141 220 240 189 140

GFSFLT1_con_3kmhel_027.txt.gz
Helicity
41 40 38 35 34 37 48 67 61 57 67 78 74 53 47 53 51 39 30 34 30 32 30 15 11 25 23 20 14 16 14 17 21
33 44 41 32 31 34 46 54 58 63 68 57 51 46 52 55 52 47 49 43 45 37 36 32 33 30 32 31 28 24 24 22 22
52 31 47 33 35 29 31 30 39 49 49 43 42 40 38 30 33 33 55 52 50 41 30 35 33 38 45 46 41 36 34 30 28
38 49 46 40 44 33 28 28 25 14 22 28 33 37 36 32 34 32 41 65 47 41 39 32 35 36 45 47 47 47 42 37 31
25 26 26 40 32 16 9 -4 -8 3 12 14 32 46 54 26 22 42 52 57 70 53 46 46 37 37 40 46 53 53 51 45 40
36 66 56 38 24 12 -1 -7 -10 1 7 12 37 69 44 10 30 46 42 68 59 42 40 44 47 43 40 50 53 59 57 55 50
36 46 47 36 20 14 -3 -3 -1 13 20 23 54 54 25 38 58 69 57 68 43 34 35 40 49 52 52 55 65 63 61 61 58
49 48 51 42 45 41 33 38 53 27 36 42 45 54 59 82 93 86 109 117 68 48 44 44 49 55 60 63 66 79 82 81 89
59 61 61 54 55 49 55 52 50 49 45 50 58 64 88 115 130 126 139 167 117 91 80 75 72 67 63 66 74 89 97 99 98
80 77 72 67 64 54 54 54 55 52 50 58 60 74 79 96 134 144 122 168 159 115 92 82 78 78 74 72 85 91 94 99 104
80 69 64 63 61 61 64 65 72 74 66 76 79 80 89 96 102 135 130 135 162 145 105 79 72 63 64 66 84 96 102 105 104
71 71 77 77 78 75 69 61 72 88 88 68 64 69 68 85 85 96 109 112 112 111 85 68 70 68 55 49 60 84 99 111 115
94 97 108 123 99 102 108 107 90 83 87 83 84 90 88 80 75 82 90 101 109 117 95 78 55 54 73 86 75 61 75 88 107
137 174 180 140 137 134 134 115 102 92 85 81 93 94 94 88 77 85 92 97 115 114 94 79 98 90 68 66 86 95 101 99 90
187 172 173 160 141 131 116 110 104 91 97 98 106 94 96 76 77 68 110 158 167 153 124 114 108 93 71 40 68 90 87 100 118
195 159 144 133 123 122 112 97 90 79 90 77 84 82 59 72 200 232 125 102 148 147 123 117 158 134 147 121 107 69 48 80 99
150 145 131 128 107 108 93 78 59 66 86 78 72 46 27 126 142 126 129 107 127 126 127 150 163 178 176 154 109 88 94 64 58
128 114 95 83 66 63 62 69 74 66 70 95 74 54 87 86 54 87 55 136 103 109 127 112 110 110 125 123 132 154 205 180 185
82 71 73 77 64 68 49 71 76 92 78 79 81 95 102 112 102 121 143 54 145 122 112 127 105 94 115 134 102 177 203 222 210
58 51 66 65 54 53 62 79 76 81 93 92 87 84 96 110 152 147 138 139 122 125 110 126 174 142 110 154 174 184 142 159 216

GFSFLT1_con_3kmhel_030.txt.gz
Helicity
45 40 41 36 36 36 41 49 56 62 62 48 59 43 50 57 50 63 66 75 65 46 54 54 64 56 54 38 38 29 33 29 32
38 37 39 41 35 30 29 33 30 28 29 27 26 34 42 50 51 41 49 60 45 43 51 57 56 51 51 51 46 44 36 36 36
58 50 45 34 25 27 17 13 12 18 18 18 21 24 31 39 35 36 35 27 47 41 40 44 45 47 51 57 55 54 47 43 41
37 62 44 26 21 10 -1 -7 -11 -2 0 11 12 33 38 53 56 34 30 20 12 42 41 38 38 37 45 44 56 54 50 47 47
19 34 16 20 21 2 -7 -11 -19 -21 -10 -3 -4 28 49 77 62 47 47 -12 -19 25 36 32 39 44 40 49 49 54 56 52 55
61 59 83 56 17 -2 -14 -25 -26 -16 -4 -16 -11 34 99 72 51 85 74 30 11 14 17 18 22 30 41 43 50 56 57 61 59
95 82 45 16 6 0 -9 -15 -8 8 44 38 21 97 108 76 70 102 80 65 43 39 41 39 31 28 32 40 45 50 68 70 74
68 56 61 54 33 55 39 52 61 70 68 64 64 106 124 133 136 126 105 99 86 76 75 74 59 55 52 51 49 52 59 76 84
69 69 71 77 73 65 54 62 47 55 62 70 84 94 111 129 136 133 106 121 102 87 83 81 70 61 56 54 58 70 68 64 65
77 78 69 61 60 62 60 63 62 61 59 63 65 68 79 98 136 161 121 118 131 99 83 71 61 60 53 50 68 77 80 83 84
98 75 70 71 71 72 81 82 80 81 77 84 89 88 78 97 81 68 77 67 73 73 68 58 53 47 50 57 49 54 82 98 95
101 91 89 101 120 119 128 123 113 114 111 89 76 81 77 63 60 66 78 103 98 96 65 48 60 56 49 42 46 56 61 63 70
146 169 186 167 162 194 194 158 118 97 84 83 86 87 74 64 68 83 87 94 95 112 102 96 72 55 22 28 37 59 70 70 77
244 237 220 224 201 186 158 139 112 88 92 87 87 70 68 82 75 102 148 149 130 133 144 155 140 81 56 44 43 54 62 76 85
266 237 212 206 184 155 132 109 87 78 75 74 81 74 91 93 158 146 119 92 78 74 94 100 134 215 228 211 191 137 100 58 45
217 188 167 154 139 113 106 73 70 75 81 60 52 75 77 83 96 88 72 64 92 93 113 118 93 72 68 70 97 144 153 138 134
143 128 100 96 93 96 88 70 32 35 57 29 34 -1 14 57 50 75 78 75 74 66 71 86 87 83 60 58 86 108 169 182 161
73 71 72 71 72 65 70 68 74 48 54 84 55 43 45 46 19 73 36 69 74 95 78 69 89 97 107 114 113 122 146 176 185
51 28 30 43 59 75 66 76 71 82 84 73 95 101 117 99 73 69 112 58 109 76 92 84 75 122 86 78 82 132 159 205 193
17 7 26 48 49 64 73 78 84 77 88 90 96 97 101 118 146 106 127 129 105 95 75 113 95 106 110 100 115 170 226 199 176

GFSFLT1_con_3kmhel_033.txt.gz
Helicity
40 29 23 23 22 15 16 22 29 34 40 30 19 22 20 53 31 13 4 25 33 50 50 49 52 58 60 61 50 42 36 34 27
52 43 24 14 7 1 -4 -2 5 8 5 0 -6 -6 6 18 17 4 -2 7 18 23 33 38 41 39 37 38 42 41 41 37 39
42 36 40 16 -1 -11 -19 -21 -28 -28 -26 -26 -22 -16 -12 9 22 17 9 -20 -3 -5 14 26 27 20 25 22 38 40 39 41 43
18 33 28 0 -11 -17 -23 -31 -31 -31 -31 -24 -19 -5 11 48 64 44 36 -22 -35 -14 -7 15 11 10 9 21 21 36 43 40 42
-11 24 9 -15 -19 -21 -32 -37 -36 -36 -29 -24 -18 -16 2 58 76 61 45 -16 -26 -14 -8 8 6 0 2 7 9 19 29 42 43
-9 7 10 7 8 -18 -26 -31 -33 -28 -14 -13 -17 -3 63 87 84 82 30 -1 -5 -3 11 30 20 12 10 4 6 7 15 23 36
26 39 53 42 13 0 -7 -20 -16 2 43 41 21 65 84 112 121 119 61 30 25 23 41 60 66 35 29 23 16 16 18 20 31
43 47 42 47 32 42 35 37 51 57 75 79 97 101 126 150 142 117 68 48 39 28 51 77 101 95 52 35 33 35 37 36 31
67 54 53 56 52 49 50 60 54 54 59 69 64 46 58 84 104 108 76 68 54 23 34 45 65 79 64 40 39 54 68 71 67
86 80 62 53 59 65 61 64 68 63 55 53 56 53 45 30 32 44 16 9 15 20 22 21 22 24 18 25 34 36 39 48 69
118 108 98 87 89 99 118 140 141 133 126 106 79 58 47 51 38 25 30 35 47 62 79 62 45 44 47 44 42 49 53 49 37
142 148 174 168 181 190 183 172 133 98 84 67 65 53 35 26 40 52 69 77 98 123 152 184 190 155 125 56 49 59 63 68 74
222 217 234 216 193 160 141 122 109 102 92 71 75 66 57 76 90 117 130 134 134 145 178 183 191 183 187 203 175 152 112 86 72
247 212 211 194 158 151 128 122 101 84 81 76 80 73 89 107 138 156 136 133 111 84 85 113 99 161 171 171 160 172 178 162 148
205 198 191 158 133 128 108 102 85 65 63 67 66 76 84 102 119 100 95 94 62 74 96 84 56 90 136 164 178 181 158 123 104
163 132 128 114 100 94 96 76 83 74 79 35 30 18 30 82 88 70 94 72 97 106 80 58 76 65 97 104 112 132 123 126 129
113 86 73 70 65 86 87 72 34 15 23 -9 -21 -29 2 85 56 77 76 85 72 55 81 56 56 71 82 98 156 172 184 192 216
78 56 39 44 48 61 57 60 62 34 46 73 37 38 57 47 36 54 67 61 76 80 73 67 76 79 95 82 59 99 119 168 214
64 51 42 37 36 59 51 67 67 74 75 54 97 90 112 80 63 160 93 66 98 71 81 71 73 66 55 97 92 114 176 176 183
63 50 43 45 45 52 70 77 86 67 63 69 77 81 96 97 140 115 153 118 112 105 97 98 96 91 91 83 106 139 129 130 157

GFSFLT1_con_3kmhel_036.txt.gz
Helicity
30 12 10 12 10 9 10 8 3 2 7 -0 1 -9 -11 25 23 12 4 5 14 11 6 29 17 24 30 31 34 25 21 15 18
45 18 21 11 3 -1 -2 -2 -8 -9 -9 -9 -9 -10 -6 13 22 19 12 9 -0 -0 -5 4 14 19 20 15 12 13 16 19 19
25 24 20 7 -5 -10 -13 -18 -24 -23 -16 -18 -4 -9 -1 17 31 36 39 8 -9 -9 -10 -5 13 8 10 9 8 10 18 13 18
7 11 6 -4 -12 -12 -13 -16 -15 -18 -21 -17 -16 -2 3 34 59 55 60 1 -19 -14 -5 -13 5 14 7 5 -2 10 7 17 22
-3 5 -1 -10 -11 -14 -15 -19 -24 -26 -22 -19 -15 -10 1 41 67 75 69 -1 -12 -3 1 -3 10 18 17 13 10 4 -0 -0 11
-7 -0 3 -6 -10 -9 -20 -25 -31 -26 -18 -16 -10 1 59 68 95 115 64 28 26 24 19 13 31 23 27 21 15 9 3 3 4
19 26 27 9 15 1 -13 -15 -12 -0 34 39 24 55 60 77 96 105 55 35 28 19 15 30 50 73 70 56 20 12 8 8 8
15 19 19 36 22 32 24 23 35 36 49 52 58 60 63 71 81 66 34 18 1 5 21 26 33 31 55 57 30 18 12 17 27
35 33 39 43 42 34 39 46 45 50 49 50 51 54 51 53 54 48 52 39 61 78 67 54 30 22 28 21 14 21 21 23 20
68 73 75 62 61 62 64 69 86 95 96 90 80 69 68 70 60 56 75 95 111 115 112 114 118 112 87 65 49 46 48 41 43
123 122 124 135 137 136 119 117 114 101 87 78 72 58 44 54 67 68 69 127 153 172 182 188 187 189 172 153 144 120 110 114 118
174 172 185 172 149 133 122 110 91 85 83 80 81 71 73 88 106 121 137 145 183 220 217 236 222 237 258 245 213 202 212 203 176
188 186 182 151 123 112 99 88 95 100 96 87 98 98 103 116 145 166 168 160 149 156 212 209 211 212 234 231 220 218 226 198 173
183 159 142 127 120 114 96 101 94 92 100 103 100 94 91 128 155 138 134 137 96 96 154 185 190 207 204 213 207 195 196 199 192
152 149 138 118 110 113 101 105 111 104 82 75 73 81 98 135 134 110 113 95 78 94 109 102 68 134 164 170 165 198 192 190 181
160 135 122 102 93 84 93 75 96 93 80 55 61 62 89 96 131 87 135 78 108 110 95 70 74 86 164 158 202 216 214 224 211
144 115 96 85 71 89 94 85 62 51 55 22 3 4 34 89 39 84 60 92 70 79 94 82 80 82 93 109 184 182 183 178 176
119 96 73 68 64 68 63 71 68 50 40 45 42 29 58 43 35 41 76 61 76 65 77 83 101 113 104 120 113 142 164 158 168
99 77 66 57 46 69 64 75 68 67 68 47 84 68 86 70 70 102 63 62 82 72 90 99 94 107 106 113 122 142 157 162 132
85 73 69 70 69 77 91 94 98 73 62 65 62 68 89 97 150 121 123 114 116 121 114 118 120 99 116 107 88 123 122 112 136

GFSFLT1_con_3kmhel_039.txt.gz
Helicity
16 5 12 8 12 11 13 14 12 15 14 14 17 18 13 46 43 30 25 25 18 28 20 12 24 19 11 10 14 9 11 13 14
7 5 9 11 5 1 -0 2 1 -0 -0 7 6 8 13 30 35 34 28 24 9 11 9 4 7 23 17 16 11 13 11 15 14
11 7 7 9 6 2 -1 -2 -6 -15 -15 -10 -6 4 7 24 41 42 46 19 1 1 3 4 -1 13 6 8 8 9 9 14 23
11 1 3 -2 -7 -15 -13 -16 -18 -20 -20 -19 -18 -6 -6 22 52 56 73 29 5 3 3 3 -13 -2 18 16 12 2 -4 10 8
3 -2 -1 -9 -11 -12 -15 -18 -19 -18 -18 -14 -6 -2 3 35 54 81 95 40 36 31 24 16 4 6 21 28 19 14 6 -4 -3
-8 -4 6 -0 -7 -11 -8 -8 -7 -2 5 3 6 12 48 47 70 88 65 45 36 26 25 25 20 15 31 44 46 21 12 8 4
2 6 7 12 9 7 -0 -3 2 16 30 34 28 42 41 55 77 83 52 40 37 36 39 20 19 18 24 28 34 28 15 15 13
13 9 16 20 19 29 26 26 33 34 39 43 47 51 52 52 58 55 77 82 75 68 70 70 81 77 49 32 23 31 31 14 14
30 44 48 49 41 39 38 43 47 60 70 65 64 71 66 60 60 70 92 96 100 95 88 89 89 95 96 90 72 61 58 49 39
65 74 70 67 63 68 82 81 75 78 76 74 66 70 71 76 70 69 117 142 151 166 165 152 144 135 150 171 214 204 186 159 155
98 108 119 117 107 105 87 90 81 76 68 66 67 72 78 82 95 115 139 200 230 211 224 206 199 219 210 222 228 242 239 238 239
119 133 139 128 121 121 114 96 81 80 72 65 71 89 106 113 149 185 168 181 216 226 221 233 230 238 232 232 248 243 225 210 203
140 141 149 123 114 95 93 93 85 81 72 72 92 113 113 135 181 180 166 170 161 175 204 215 229 226 217 217 201 190 193 205 194
175 151 134 120 110 111 97 96 88 79 85 91 99 107 106 145 184 167 165 160 137 111 156 198 183 183 179 185 187 196 205 189 179
172 152 139 114 104 108 93 102 104 88 56 57 63 89 102 146 167 148 144 128 90 105 105 74 84 149 158 185 185 198 193 211 200
180 152 136 108 93 80 85 66 96 91 80 47 66 91 111 110 124 71 109 106 75 108 115 97 109 115 154 209 190 218 225 222 236
172 138 117 106 84 96 87 82 63 67 61 36 22 36 55 98 63 96 103 116 67 85 75 89 102 123 128 142 157 208 196 221 213
157 129 101 93 78 71 66 69 71 64 56 60 59 46 67 53 39 113 115 69 76 67 80 84 102 109 128 138 157 162 203 214 227
139 118 102 86 69 83 68 85 73 67 69 54 88 72 84 80 92 95 89 58 59 63 87 94 108 127 134 111 145 155 173 196 186
129 107 93 86 80 92 107 109 113 83 75 66 62 66 83 87 139 128 108 77 77 95 95 131 121 125 130 143 127 129 145 135 140

GFSFLT1_con_3kmhel_042.txt.gz
Helicity
-3 -6 8 13 12 10 11 15 15 15 18 22 25 24 25 45 35 32 23 32 18 14 17 20 20 20 27 22 17 17 17 15 10
-7 -7 1 3 5 6 5 10 9 -2 -0 -1 8 10 13 25 29 32 33 27 7 1 -4 -2 1 9 17 24 25 18 17 13 15
1 -2 2 2 -0 2 1 4 3 -8 -4 5 2 16 14 28 43 43 51 33 13 12 4 -2 -0 -5 17 20 4 11 3 9 15
10 3 8 -5 -4 -1 1 2 -5 1 -0 5 8 18 18 33 53 66 82 47 26 18 21 25 19 -0 -1 11 14 7 1 1 3
3 -3 -1 -8 -6 -2 2 8 5 3 3 8 9 13 18 33 42 58 72 39 35 22 20 15 6 3 2 8 19 18 17 17 12
-6 -9 -1 -2 -0 7 13 13 6 10 15 20 24 28 32 34 43 57 49 51 39 30 11 14 18 11 6 16 14 26 21 18 17
-6 -4 -3 -4 2 10 16 19 20 30 34 37 42 39 48 46 48 49 72 62 60 65 63 69 56 70 68 34 23 19 24 25 20
23 21 20 27 35 32 27 33 39 47 52 63 67 67 64 56 57 65 88 85 83 84 82 91 96 96 90 77 72 88 81 57 35
43 39 39 47 47 42 47 55 69 81 72 63 71 72 66 60 59 71 110 106 115 122 122 129 127 137 169 177 180 139 144 150 147
58 58 72 77 71 77 85 86 82 82 78 69 65 65 76 80 80 96 153 173 173 185 206 160 180 181 178 192 195 209 227 230 202
84 97 119 133 118 111 105 98 92 84 74 77 76 80 88 86 117 131 153 199 200 193 198 203 207 186 179 192 196 190 183 177 173
115 122 142 129 115 113 103 89 86 86 82 86 89 102 110 122 160 159 155 164 205 202 189 184 175 163 163 159 152 149 157 166 159
150 140 134 118 110 88 81 78 69 70 66 74 95 104 104 138 191 177 165 157 149 159 186 184 172 158 153 146 151 155 145 158 155
171 145 121 110 107 98 71 69 60 46 62 70 87 86 109 149 190 177 156 158 135 106 121 131 122 125 122 123 137 138 146 148 158
219 170 152 121 109 106 83 82 79 62 45 46 60 73 90 128 160 143 121 133 103 51 56 19 33 100 103 113 127 130 150 156 147
194 169 154 121 103 81 80 47 81 77 73 43 74 95 120 116 129 98 63 101 56 43 53 29 55 68 101 113 140 149 165 176 200
199 164 144 114 88 87 74 77 44 38 36 22 8 51 70 122 72 55 98 87 57 36 47 63 80 94 104 97 135 131 169 175 192
191 162 124 104 75 66 60 54 66 56 45 53 37 30 51 69 27 104 68 95 51 45 57 61 62 85 99 97 107 99 132 142 153
176 140 113 103 86 83 60 66 44 33 55 43 69 58 69 72 77 71 94 47 50 33 53 39 75 71 92 79 94 113 121 143 161
159 128 118 112 87 75 90 85 83 64 60 54 55 65 76 92 119 129 91 64 61 50 55 81 53 75 87 104 93 71 129 139 142

GFSFLT1_con_3kmhel_045.txt.gz
Helicity
12 18 20 23 23 22 18 21 17 23 28 38 43 47 52 45 40 35 34 31 20 8 -3 1 16 16 20 30 28 22 19 25 20
13 16 24 24 22 29 22 23 17 12 17 15 20 26 34 27 30 32 35 34 25 16 10 -1 -4 -9 2 13 11 18 26 20 23
15 13 14 16 19 28 25 22 16 7 8 12 15 19 27 22 25 30 33 30 20 16 16 11 0 -14 -21 -1 5 0 5 8 9
7 5 6 4 7 10 5 7 0 0 5 12 19 19 18 18 27 28 30 27 16 11 3 1 3 0 -13 -12 5 9 10 11 9
0 11 6 1 6 6 1 3 7 9 13 17 20 24 24 30 30 36 38 33 26 18 5 6 3 2 9 6 2 12 14 14 14
9 6 6 12 6 6 8 10 14 24 33 41 39 32 41 47 47 46 48 49 44 46 63 71 51 51 58 49 24 20 25 20 15
5 9 16 12 4 13 17 20 27 37 46 56 61 63 65 65 60 54 65 65 64 67 74 82 89 78 78 93 100 110 86 57 25
24 27 33 25 31 33 34 36 47 64 67 69 65 72 69 58 54 66 81 78 82 93 108 123 111 136 131 135 120 103 114 124 131
48 46 48 44 52 53 63 75 81 81 85 67 71 71 72 59 59 77 117 113 108 132 168 148 177 162 151 142 143 142 141 144 142
64 68 75 86 87 90 93 93 90 80 74 66 64 71 81 76 85 97 151 161 163 165 199 179 167 146 142 147 145 135 127 120 121
77 95 98 120 108 101 99 95 84 75 69 73 82 88 92 95 119 125 144 198 209 198 187 172 162 155 152 139 129 121 123 121 120
103 118 111 104 101 114 96 83 77 74 73 76 85 98 103 116 142 154 157 159 204 195 186 172 153 136 127 124 115 130 124 110 105
159 157 128 112 110 106 87 73 70 66 59 62 83 96 93 135 155 155 152 152 141 151 176 159 133 113 97 92 86 87 98 89 89
171 166 147 134 108 98 78 74 56 53 56 56 78 83 104 141 155 162 138 143 124 117 114 106 81 77 75 82 86 97 90 88 90
229 172 161 116 114 100 79 72 67 56 43 37 58 87 98 123 148 152 112 123 124 104 66 48 33 55 65 79 89 95 105 102 106
170 172 134 133 130 105 83 60 78 69 58 44 61 73 91 97 114 102 98 121 104 77 91 45 47 54 84 90 98 111 119 120 122
174 148 154 132 101 106 104 70 34 33 41 18 -1 51 74 106 82 86 118 103 117 84 77 71 73 73 76 79 98 105 117 118 137
213 169 149 123 97 85 76 74 57 43 43 63 40 25 60 89 79 127 102 124 87 60 50 41 53 43 52 59 73 77 101 110 119
217 144 138 114 83 83 82 64 56 40 56 42 70 76 89 78 60 68 82 66 39 14 4 18 3 9 26 47 61 82 104 130 145
154 131 121 106 94 94 82 71 71 59 43 54 67 81 84 89 98 99 69 47 29 14 11 -6 1 10 24 32 33 51 95 91 114

GFSFLT1_con_3kmhel_048.txt.gz
Helicity
33 37 37 38 46 59 52 57 48 44 45 44 43 45 41 12 30 24 36 25 44 27 15 7 6 14 8 14 21 26 17 19 21
36 38 44 45 46 45 46 37 32 35 33 33 28 34 28 8 16 16 22 25 21 11 13 4 -4 -7 -11 -8 5 4 5 20 17
38 34 33 35 34 34 28 21 22 21 18 16 16 19 16 6 16 21 21 37 17 10 7 -0 -3 -7 -18 -19 -10 -0 4 5 9
33 21 21 20 18 14 8 10 9 14 13 18 20 19 18 6 25 21 25 53 21 15 4 -0 4 -3 -1 -5 -7 -5 3 7 8
32 26 26 12 7 6 10 14 21 22 23 25 28 19 4 23 30 36 61 44 43 41 56 62 52 54 46 43 16 -1 7 10 5
24 55 32 14 7 9 20 31 33 23 35 43 36 9 42 44 52 57 63 50 54 67 71 68 74 70 71 67 80 81 80 53 26
42 37 24 8 3 20 34 38 29 13 36 46 30 48 46 48 48 64 67 68 71 77 97 111 96 112 113 107 109 109 111 96 109
38 36 27 24 23 30 33 35 46 59 58 58 56 49 49 50 53 83 85 92 96 104 145 147 166 159 144 137 138 136 132 135 127
52 48 55 49 48 52 52 66 72 69 61 60 53 51 57 58 64 94 117 124 158 150 203 200 179 165 156 155 146 136 127 126 123
71 68 65 69 74 81 78 83 76 67 60 55 56 56 64 66 82 108 146 155 199 215 198 179 162 148 148 136 118 120 122 126 121
78 80 78 90 102 99 96 102 82 65 58 53 56 64 73 87 100 121 147 209 218 199 185 170 154 150 137 125 112 102 110 107 99
85 101 101 86 79 92 91 78 64 59 57 54 62 74 87 97 103 119 136 131 181 189 181 170 157 138 128 114 108 104 99 100 91
119 126 110 91 96 96 87 70 62 57 51 48 61 64 67 101 111 123 132 140 129 122 155 149 131 115 96 87 83 79 81 78 81
141 139 116 100 102 86 71 69 53 44 45 37 55 68 78 98 116 130 130 134 124 114 103 99 66 76 65 74 79 83 74 77 76
199 191 157 117 109 79 65 56 53 50 41 30 48 79 87 104 113 134 117 117 105 108 97 81 63 43 54 64 71 76 85 85 90
260 202 144 142 104 86 64 58 60 56 54 37 53 64 84 87 94 90 117 107 102 90 101 74 65 64 61 69 92 104 107 118 122
240 199 172 130 107 89 85 68 45 53 61 47 31 59 69 89 88 114 121 123 120 100 99 86 80 78 79 81 83 99 114 135 134
250 188 155 148 109 82 81 75 67 59 67 84 61 48 88 101 105 108 104 113 117 93 79 71 67 69 69 66 74 86 98 105 114
254 173 129 115 98 81 81 80 80 73 86 62 82 95 104 83 77 91 51 116 49 45 44 41 49 48 58 66 58 81 87 113 126
171 182 121 117 91 90 80 78 90 100 91 88 77 74 79 93 109 91 94 78 62 44 32 28 27 31 45 57 54 92 68 77 90

GFSFLT1_con_3kmhel_051.txt.gz
Helicity
41 42 46 44 46 45 49 48 43 48 46 40 33 24 18 -6 12 21 37 21 42 23 16 7 -1 0 7 8 11 12 15 16 16
47 44 38 37 35 36 35 32 29 26 32 35 35 29 15 -2 21 26 34 57 37 20 19 19 11 2 1 -7 -6 -3 -5 -6 7
38 35 34 30 28 27 24 20 16 15 16 12 12 17 13 -3 14 31 19 55 32 22 28 24 14 8 3 -2 -8 -9 -3 4 2
34 30 25 22 17 13 10 6 7 11 12 12 12 11 1 -9 27 15 59 60 42 41 63 69 76 67 59 51 25 1 0 -7 -2
34 20 22 20 19 17 12 13 11 13 16 17 13 2 -21 -1 28 54 72 61 54 60 67 67 78 81 80 85 83 85 97 75 46
35 70 47 26 27 28 28 24 16 4 14 24 12 -9 35 47 64 93 84 67 65 68 74 80 82 102 116 119 109 109 108 106 108
73 64 39 28 25 26 25 18 2 -2 26 18 2 23 35 48 52 90 86 73 78 90 109 114 125 130 128 131 137 133 138 136 130
44 51 38 32 22 21 17 21 23 59 60 47 45 38 48 54 72 114 94 90 97 139 163 172 153 151 151 150 141 139 131 129 129
61 58 72 56 43 66 37 75 63 55 53 54 53 47 57 65 71 125 125 118 132 210 206 176 157 144 135 125 112 116 121 126 123
79 85 70 71 72 87 68 78 67 64 55 50 50 47 59 67 84 135 144 171 207 199 178 156 136 133 123 114 109 99 101 106 105
94 98 101 105 104 98 102 90 87 68 60 50 48 45 59 71 95 130 157 190 190 181 154 142 135 135 127 110 103 96 84 86 91
94 149 134 112 105 87 85 89 83 61 52 43 50 67 79 73 83 107 143 99 132 141 148 140 126 124 118 100 90 91 90 85 85
111 97 132 96 84 85 94 83 67 62 52 46 47 63 63 80 92 102 121 138 119 99 124 114 104 102 104 87 88 85 88 80 82
105 112 139 105 100 89 81 85 78 60 42 26 43 72 65 90 102 118 120 129 122 118 112 81 75 81 76 72 75 83 86 83 78
199 119 162 140 121 89 95 85 66 57 37 20 33 76 80 101 98 114 105 122 110 96 105 97 96 74 61 66 71 82 87 84 80
225 206 206 161 158 120 93 76 66 60 42 20 44 64 79 83 96 94 99 127 95 99 116 101 95 91 85 66 84 86 95 103 112
250 228 234 202 153 122 102 80 55 54 53 37 15 47 84 76 81 119 119 112 125 119 123 106 101 103 89 99 92 108 119 127 132
353 303 299 210 128 108 104 89 71 49 49 75 69 55 95 117 115 125 104 115 139 113 102 94 99 100 93 102 116 102 91 96 91
353 306 234 256 140 99 90 73 70 60 73 51 102 122 138 123 115 143 89 135 117 97 98 90 78 77 88 95 95 97 105 97 89
355 321 266 185 185 115 100 80 85 83 87 91 95 103 95 99 120 108 117 133 126 115 92 65 81 56 72 91 86 100 81 68 59

GFSFLT1_con_3kmhel_054.txt.gz
Helicity
32 37 41 50 52 53 53 46 42 41 33 29 21 13 -6 -19 -1 14 12 44 41 34 38 32 26 12 5 6 1 0 2 3 13
30 34 34 34 36 36 36 26 22 23 25 25 19 8 -11 0 4 39 47 37 34 23 30 29 22 11 11 -1 -8 -11 -4 0 -2
22 25 22 22 25 22 19 12 8 8 9 10 7 0 -11 -15 18 44 43 53 39 41 64 77 79 82 66 39 9 -2 -11 -10 -6
22 18 18 17 16 8 4 1 2 7 12 8 1 -7 -10 -7 16 73 41 62 62 69 73 75 78 78 76 79 94 96 83 58 48
23 15 17 18 18 12 8 9 10 13 10 7 -3 -14 -15 13 62 74 66 80 68 65 70 73 78 97 108 104 100 104 113 113 122
22 17 38 30 25 25 24 17 9 1 0 -10 -12 5 23 61 72 48 82 75 69 83 92 112 109 106 108 114 122 118 121 118 121
67 70 46 31 28 28 18 7 -5 13 27 -13 -4 27 56 72 72 68 87 77 78 116 142 137 131 128 135 131 119 111 107 115 120
90 58 43 35 24 19 11 16 28 52 72 56 53 63 71 81 70 93 109 111 134 162 166 162 148 138 129 118 110 113 105 102 113
60 69 48 50 57 23 43 64 87 66 63 68 70 74 69 78 76 106 123 112 175 201 175 146 133 126 110 101 91 87 88 88 94
49 78 87 70 91 113 104 119 95 91 89 73 59 52 60 77 107 102 165 165 177 168 141 126 117 113 108 100 92 90 87 86 89
75 107 92 176 168 162 155 128 109 102 92 77 61 64 77 85 117 116 132 144 150 141 126 117 114 111 108 107 97 90 88 82 90
120 127 174 128 137 180 124 109 112 109 84 69 60 73 80 75 96 134 116 101 107 105 110 110 102 96 104 106 102 94 94 92 91
221 221 207 150 117 164 155 126 93 86 72 60 47 68 74 72 119 135 143 108 97 93 93 97 91 85 99 99 98 98 102 103 101
237 251 221 171 141 137 122 148 112 86 67 49 37 65 58 77 112 137 138 121 124 95 84 86 96 89 87 87 94 100 110 109 101
269 221 217 222 203 171 131 96 135 87 56 38 40 66 63 85 91 111 111 113 111 96 91 100 97 102 92 93 83 90 99 100 101
341 321 317 260 209 172 146 121 130 94 61 45 47 48 59 63 72 93 82 110 91 99 120 103 87 79 91 91 73 93 95 100 98
389 387 399 334 294 282 241 176 65 55 64 46 29 43 50 53 66 101 126 112 125 136 114 97 85 87 90 76 78 100 103 95 106
426 457 419 344 275 241 173 211 111 61 64 67 34 54 47 65 115 122 127 111 131 116 93 88 91 101 94 85 95 97 84 89 91
428 419 340 280 248 215 241 181 123 68 45 63 83 94 103 98 107 146 151 160 157 124 114 97 102 97 104 88 101 99 101 95 100
426 372 331 324 259 244 195 125 106 94 86 86 86 95 98 117 148 122 134 117 104 111 115 101 97 91 88 74 82 57 58 60 59

GFSFLT1_con_3kmhel_057.txt.gz
Helicity
17 15 15 25 34 40 38 41 50 39 27 24 22 11 0 11 31 13 47 19 40 31 32 30 30 22 7 6 3 -1 3 -1 -3
12 12 14 21 27 27 29 27 26 31 32 26 19 8 1 27 21 18 29 18 29 23 24 50 58 45 20 6 -3 -11 -13 -12 -14
10 10 13 16 20 21 21 18 15 13 14 15 10 1 0 33 33 30 27 34 48 65 64 63 73 72 74 92 82 53 32 5 8
14 10 13 11 15 8 11 11 11 13 9 7 2 -1 3 53 42 53 38 54 58 55 63 71 71 104 109 100 110 115 115 113 112
19 9 7 7 8 7 9 12 8 8 7 5 7 15 38 39 65 45 51 66 62 65 70 96 99 101 112 120 108 112 109 110 122
21 10 13 16 15 11 11 11 8 6 2 5 26 51 61 85 59 43 68 73 80 96 115 119 107 104 122 121 116 114 108 115 126
18 17 28 24 18 13 11 13 18 18 3 26 29 58 78 65 67 60 78 71 96 137 123 124 127 124 109 110 111 109 113 122 119
41 41 23 23 22 15 17 26 33 41 44 41 67 77 83 65 71 76 99 120 129 158 133 120 114 108 99 89 93 96 95 94 99
56 38 28 28 31 26 52 42 63 96 95 79 77 75 77 57 71 86 97 122 187 161 113 108 102 97 90 86 83 85 87 82 87
82 54 49 28 38 22 69 120 141 136 122 107 82 67 76 76 76 81 138 142 153 136 110 103 91 93 89 88 88 87 87 84 84
71 64 52 70 88 117 150 148 157 160 142 119 81 74 83 78 80 88 105 123 123 114 103 98 93 95 97 94 88 84 80 83 85
74 99 136 156 179 196 185 162 130 133 146 133 86 74 70 82 95 97 99 104 105 102 99 99 95 89 92 96 93 89 87 89 92
130 202 205 198 201 180 169 152 152 129 107 121 87 71 67 76 108 102 100 88 87 89 90 90 92 93 98 91 94 93 91 96 97
253 269 244 228 214 214 185 164 139 153 114 100 96 61 61 67 104 109 92 80 79 67 82 106 105 98 93 91 93 89 95 93 102
332 310 281 267 264 235 190 161 146 114 109 105 81 54 54 62 78 91 93 85 99 91 96 89 76 88 75 83 101 95 86 83 91
326 319 309 291 281 237 188 168 168 178 151 112 68 60 60 54 54 70 94 91 88 94 98 74 75 66 72 80 93 77 84 89 87
375 353 348 337 331 272 188 181 180 175 149 100 106 57 62 56 48 70 80 100 112 97 90 85 75 71 78 69 76 71 68 71 76
453 421 407 379 337 277 233 217 177 158 174 113 74 61 31 46 75 86 105 143 148 145 122 93 79 70 77 76 78 60 60 68 69
556 470 399 367 327 299 227 217 186 170 133 87 105 86 85 76 82 110 155 184 180 133 92 105 106 93 99 85 58 49 65 73 84
556 465 383 384 323 284 249 277 241 139 141 79 75 101 114 133 131 106 138 156 124 118 125 98 120 116 120 97 88 80 77 67 68

GFSFLT1_con_3kmhel_060.txt.gz
Helicity
28 25 29 32 37 40 43 33 28 29 28 26 22 25 39 34 13 27 26 20 23 15 21 18 22 11 3 -0 -6 -5 -8 -1 -2
24 20 14 14 21 23 25 25 25 24 23 22 24 40 57 28 29 28 12 7 28 33 50 61 76 75 49 11 -0 -3 -4 -6 -10
16 13 8 6 5 2 9 9 7 10 16 19 26 53 54 37 34 11 20 29 42 42 59 60 58 72 84 89 95 98 86 72 74
16 10 6 1 -0 -2 3 6 5 13 21 27 33 57 47 40 33 34 45 54 49 48 54 55 88 84 86 97 102 111 112 119 112
21 7 3 6 2 3 4 10 14 20 26 36 47 51 40 57 56 45 37 50 55 68 84 102 97 94 95 92 87 94 102 110 128
24 12 7 11 10 9 11 15 16 19 34 55 66 56 65 74 57 46 53 62 81 93 114 107 108 112 106 107 99 103 114 118 127
22 15 19 17 14 16 23 27 27 27 47 64 77 67 80 76 58 43 50 59 110 124 114 120 121 112 106 103 99 99 99 105 110
27 17 16 14 10 14 22 33 43 43 51 91 99 87 79 66 64 70 94 97 145 132 97 117 117 106 90 89 93 89 84 83 98
31 31 26 21 12 20 25 35 58 91 116 112 115 100 78 68 64 67 68 141 158 116 102 109 108 102 90 83 85 87 88 82 89
58 38 40 23 22 34 32 50 83 106 122 123 127 108 89 77 70 77 130 138 136 120 113 111 104 102 98 84 85 86 87 87 85
68 47 36 42 41 49 67 106 117 133 116 133 124 109 99 85 83 89 109 123 113 105 103 102 97 95 92 85 81 82 87 94 92
76 74 64 73 82 128 161 166 150 154 130 124 109 97 78 78 91 91 102 110 113 101 97 94 93 93 91 95 97 90 83 90 95
103 119 118 145 181 203 198 190 189 151 125 96 92 101 82 79 79 87 88 86 92 93 86 90 95 95 108 112 105 88 87 94 95
158 160 195 210 226 210 212 200 157 123 108 94 109 107 88 77 72 71 68 59 68 71 87 95 98 98 102 98 101 103 92 95 97
216 241 261 267 280 251 219 204 174 124 107 119 151 129 92 66 59 56 57 56 70 78 81 89 79 89 89 89 95 102 98 95 87
284 313 310 293 280 234 221 222 175 163 146 151 166 140 96 58 43 68 76 75 89 97 92 86 86 81 69 71 81 98 88 89 88
339 369 336 305 317 272 231 220 203 174 175 155 159 142 95 67 114 94 92 101 127 132 123 102 86 77 71 69 70 86 86 81 89
343 395 387 361 351 294 253 243 197 176 202 197 151 148 82 75 108 112 140 150 160 163 140 118 114 99 87 86 92 82 72 75 82
403 426 470 433 378 349 289 243 198 200 194 202 177 180 84 58 56 95 136 178 178 156 117 129 131 151 132 138 135 114 100 95 100
476 482 488 467 415 361 322 263 229 206 191 199 198 133 127 119 119 112 136 159 163 132 152 132 161 170 167 148 158 161 133 109 101

GFSFLT1_con_3kmhel_063.txt.gz
Helicity
37 37 50 61 63 55 39 29 29 19 17 25 32 19 16 8 13 6 5 26 13 14 35 56 20 8 -4 -1 -6 -12 -11 -4 -12
37 35 28 37 35 27 23 19 12 11 18 24 28 15 11 8 7 0 13 16 59 57 49 50 43 47 63 30 29 10 -4 10 16
31 21 17 16 17 12 8 5 6 9 13 26 30 27 29 22 11 11 20 34 46 55 57 62 76 73 88 99 102 101 118 100 72
33 23 14 7 3 -3 -4 -3 3 12 21 36 34 42 44 42 34 37 40 53 49 51 64 90 93 87 96 82 89 87 106 120 128
41 31 18 13 6 2 -1 2 9 20 31 45 45 42 60 59 52 45 30 41 61 69 95 99 108 108 91 92 98 105 112 121 122
38 26 21 20 13 7 2 5 16 33 41 50 53 66 66 71 57 38 42 46 69 104 105 114 109 105 107 109 108 109 111 110 117
43 25 24 19 13 7 9 15 25 49 48 50 74 73 78 76 65 44 27 58 106 111 100 110 113 103 105 100 92 90 92 100 110
52 38 20 18 16 19 23 33 38 38 56 69 79 80 80 72 59 54 87 93 134 114 83 99 103 95 87 88 87 85 84 80 91
57 52 38 31 32 41 46 47 55 79 99 91 89 85 78 62 51 52 76 146 145 98 90 102 97 93 82 81 84 82 79 82 84
65 44 46 38 55 50 56 61 84 108 128 115 98 90 77 69 60 73 130 141 124 111 106 97 98 98 91 82 79 79 80 82 80
63 60 47 49 54 57 66 87 117 127 126 126 107 95 82 76 79 88 111 120 111 106 100 97 104 106 96 78 73 77 79 79 78
78 74 70 51 62 78 111 147 149 141 140 133 113 99 88 84 91 96 106 107 110 101 94 95 101 109 100 100 87 68 62 73 78
97 92 78 74 89 119 155 177 169 148 134 113 95 96 95 90 91 91 87 82 84 88 88 90 94 103 110 105 99 90 69 70 70
116 106 105 121 142 178 202 189 152 135 129 113 101 106 122 102 91 76 71 63 70 69 90 100 98 106 114 110 102 92 82 79 76
140 139 152 198 228 221 206 193 179 147 135 128 127 129 129 114 91 70 62 64 82 115 125 106 92 100 112 103 103 104 94 81 77
187 198 219 258 267 216 217 219 188 183 152 145 146 150 147 144 114 101 100 82 96 141 148 124 111 113 108 97 91 99 87 90 81
226 249 261 290 313 276 260 252 242 203 174 161 154 169 137 163 152 119 101 109 151 162 162 150 141 121 103 93 99 100 96 90 82
237 266 307 325 349 320 302 270 271 242 194 158 166 191 136 153 162 129 126 161 175 190 182 172 149 138 127 133 122 117 113 93 89
316 294 346 366 399 386 349 309 285 281 238 195 194 214 190 161 153 106 146 176 171 180 157 156 168 185 177 189 184 162 141 127 111
368 337 376 422 433 388 362 318 313 297 251 244 225 217 204 212 184 147 125 133 135 155 166 166 198 216 214 170 164 173 132 100 88

GFSFLT1_con_3kmhel_069.txt.gz
Helicity
36 55 87 68 30 43 76 74 44 25 19 14 12 8 10 10 17 25 26 -7 -9 20 56 19 36 35 27 27 2 11 17 41 39
35 48 61 65 65 64 53 47 28 21 11 2 2 4 4 3 11 22 21 43 62 63 59 81 77 102 114 100 118 78 71 73 72
23 18 44 42 39 36 28 18 13 15 8 4 5 13 21 9 12 18 27 40 39 64 78 80 78 82 96 111 114 137 134 123 106
25 10 12 18 24 22 18 17 11 12 11 11 18 26 26 17 17 20 20 32 58 69 74 75 71 75 92 104 113 114 116 125 127
17 16 0 0 8 13 17 22 19 24 18 19 29 41 37 30 27 23 27 49 67 61 77 70 91 89 97 103 103 99 100 105 111
27 16 18 17 18 22 30 34 43 48 44 38 46 43 35 39 37 32 34 68 67 67 70 92 79 79 90 93 92 91 93 101 106
45 39 42 51 45 41 42 47 53 34 33 43 56 46 52 55 51 43 35 88 88 64 76 82 81 79 83 85 85 84 81 82 86
62 60 58 58 57 55 53 51 38 40 40 45 53 60 61 59 58 62 72 108 108 70 74 80 75 75 73 77 78 77 78 75 74
74 70 71 67 66 70 67 58 55 46 50 56 65 66 65 66 64 59 92 136 98 80 72 70 65 62 67 63 66 70 73 73 70
78 76 81 81 80 80 83 78 70 62 73 76 77 75 76 78 72 74 158 142 105 88 68 62 59 58 56 60 58 60 65 66 66
83 83 86 88 85 88 91 88 88 81 87 90 85 86 86 82 77 86 111 136 103 87 74 70 68 58 57 56 48 49 53 58 61
87 91 92 88 96 105 110 115 110 107 110 106 97 98 92 84 84 99 111 113 122 108 98 93 80 75 70 66 60 50 42 47 51
94 93 87 93 107 111 115 124 127 124 117 118 117 106 89 89 88 102 118 124 128 129 106 94 86 89 94 80 67 55 52 50 45
92 93 87 108 114 115 126 139 129 136 135 134 120 105 96 86 92 116 124 126 124 121 128 142 129 111 88 82 74 72 71 61 54
97 91 94 128 139 130 145 147 162 151 159 150 129 117 109 100 94 110 131 142 139 137 139 128 112 113 102 83 75 83 84 78 74
98 97 100 136 150 145 138 186 179 202 193 179 145 123 121 114 111 127 149 155 155 149 141 123 113 104 111 94 88 87 88 94 86
126 125 119 139 168 159 186 237 250 227 202 189 179 127 116 136 143 149 158 163 176 170 163 140 136 121 102 111 119 123 129 124 117
171 164 164 165 198 202 220 239 252 303 234 211 209 191 142 127 143 148 154 177 179 191 180 161 162 137 128 130 140 158 142 128 121
205 209 216 215 232 224 242 270 271 336 318 248 204 236 232 254 114 137 188 189 194 190 203 204 170 146 146 158 165 160 145 132 122
206 232 272 268 274 260 289 277 281 290 317 342 310 274 320 313 244 163 230 239 211 207 201 200 179 160 156 158 159 163 151 135 118

GFSFLT1_con_3kmhel_072.txt.gz
Helicity
29 51 39 45 35 63 74 47 35 22 19 14 12 10 5 -23 17 36 34 33 36 48 27 56 83 51 36 22 14 21 37 52 56
50 70 56 46 68 69 49 39 23 19 12 7 1 -6 -17 1 14 23 46 51 54 62 71 70 87 80 78 108 109 108 84 74 88
29 41 52 47 50 45 31 20 14 13 7 7 5 11 -14 0 22 26 39 30 56 61 59 60 72 83 81 98 119 124 118 111 100
6 17 26 25 27 25 16 15 14 12 11 14 21 19 -9 10 22 22 31 49 70 65 57 60 68 75 94 101 110 120 126 126 122
13 8 16 18 18 21 15 13 18 23 22 23 25 20 -6 16 17 18 47 60 57 63 61 64 60 77 79 79 80 86 96 111 115
33 14 27 24 29 22 23 25 37 40 37 33 30 2 13 23 23 27 51 62 64 54 61 70 60 68 71 72 71 72 73 77 86
32 46 33 37 46 47 41 49 46 11 30 36 25 15 29 36 38 55 60 73 72 60 63 63 65 67 67 66 66 66 66 66 69
53 58 50 44 37 39 39 52 27 28 32 36 38 39 47 46 54 81 79 93 70 61 63 64 63 64 65 64 64 65 62 60 59
69 66 63 56 50 52 45 42 45 45 40 46 53 53 59 60 61 88 104 123 87 73 63 62 62 60 57 55 56 59 62 63 62
76 76 74 66 69 64 59 56 58 57 57 63 70 74 67 71 69 83 128 126 90 75 66 66 63 58 57 54 50 49 53 56 54
81 83 79 79 77 77 70 69 69 73 70 76 82 82 79 79 77 79 87 128 107 86 73 71 67 58 56 48 42 42 44 49 49
83 83 90 87 86 88 89 88 91 94 95 85 89 84 82 85 74 68 84 94 119 100 86 82 70 64 60 58 61 55 45 40 36
84 92 91 91 99 99 97 101 108 106 107 106 102 96 90 83 77 74 82 94 99 116 109 92 84 82 83 86 78 61 54 45 38
90 93 88 92 102 103 105 112 114 121 116 118 118 115 106 101 100 84 87 102 107 103 144 139 119 114 111 95 81 67 54 44 40
86 90 90 102 107 113 115 120 129 122 120 130 126 122 117 110 109 102 97 109 118 115 122 123 126 134 113 100 86 77 60 50 54
84 89 94 108 117 117 120 121 138 159 158 171 155 131 115 116 119 120 114 126 125 137 131 140 131 122 123 117 111 90 75 71 72
107 100 104 112 130 123 137 162 181 166 185 188 175 168 142 131 133 141 138 133 144 145 149 151 154 146 119 143 131 126 111 101 95
116 125 124 124 145 161 162 181 181 217 188 196 214 241 192 194 172 141 163 153 172 155 163 171 172 143 149 138 129 144 127 118 109
119 127 142 150 184 168 198 209 194 212 241 254 215 271 272 189 205 210 167 218 230 164 220 173 186 181 196 201 188 157 138 125 111
160 149 160 178 206 197 212 227 213 229 244 271 303 231 239 253 270 237 240 268 214 205 206 182 179 192 192 178 181 166 148 128 109

GFSFLT1_con_3kmhel_075.txt.gz
Helicity
-22 19 30 38 39 62 49 32 25 18 16 15 12 -1 -28 -41 6 33 34 32 41 30 65 67 52 66 49 37 22 50 61 51 50
47 63 43 46 55 49 40 29 22 20 12 5 -5 -17 -30 -30 32 41 37 56 68 77 71 75 79 82 87 104 103 93 75 73 73
53 56 52 58 55 47 31 23 17 14 11 5 2 -16 -43 2 36 22 38 58 69 64 53 61 79 87 99 107 99 95 89 85 103
44 56 56 51 43 35 24 19 15 15 13 10 9 -13 -34 1 25 33 34 63 64 60 56 64 76 82 87 93 99 105 105 103 110
38 42 44 48 41 28 21 16 19 21 15 14 11 -9 -33 16 21 52 60 62 59 48 59 58 64 64 68 75 80 85 96 101 101
43 38 70 45 40 31 25 25 30 29 22 17 7 -15 -5 24 30 64 67 67 66 59 65 55 62 64 63 63 66 71 71 76 79
41 85 66 54 51 37 37 47 37 11 27 25 9 1 23 37 37 86 82 77 69 63 62 60 64 61 64 61 62 62 65 65 65
64 66 62 56 55 44 46 47 30 29 30 46 25 24 49 50 63 106 97 84 67 63 64 68 71 69 66 64 63 62 56 53 56
51 64 63 58 64 51 49 52 39 46 40 42 48 47 62 60 68 108 109 96 75 68 65 67 70 67 62 60 57 57 62 59 55
56 60 69 67 75 68 59 52 70 61 58 60 67 73 72 74 74 147 142 118 91 79 70 69 65 63 64 63 62 57 61 58 55
69 74 81 78 82 80 74 74 84 73 76 79 87 79 89 79 87 152 113 115 104 86 82 78 64 57 61 60 53 51 53 56 56
84 87 99 93 94 81 87 91 97 97 99 102 103 94 90 92 102 135 122 103 117 100 91 85 75 76 67 61 64 67 58 52 47
94 104 115 100 104 102 111 112 121 120 130 128 128 113 109 94 108 119 129 120 96 113 104 110 105 94 84 80 76 74 67 54 41
92 110 117 105 122 121 125 128 130 141 147 152 150 136 128 122 120 114 120 123 128 96 159 142 123 123 115 111 101 85 61 54 41
105 112 110 122 138 137 140 141 145 140 148 153 160 153 147 142 145 131 135 135 125 139 181 166 149 151 137 134 119 99 85 66 54
109 119 108 125 149 145 126 136 152 163 167 193 188 182 150 144 155 153 157 155 147 145 174 145 155 151 151 157 139 126 113 101 82
137 138 125 129 147 137 140 155 179 184 205 255 193 187 169 157 172 179 172 169 180 166 175 167 171 173 135 171 162 155 159 139 109
151 152 155 159 153 175 171 203 188 230 223 210 280 261 263 237 185 205 214 197 227 198 185 198 222 226 208 209 167 166 173 132 105
172 180 185 176 197 205 204 226 247 254 266 254 195 284 362 260 257 211 199 207 233 267 264 256 271 210 242 269 266 185 175 152 132
170 158 170 183 205 219 229 234 274 285 271 299 336 290 299 315 340 313 268 270 275 270 304 261 215 220 235 223 215 221 196 176 139

GFSFLT1_con_3kmhel_078.txt.gz
Helicity
9 27 26 20 68 43 32 19 20 20 16 9 -14 -14 -11 25 40 27 40 27 35 86 78 60 72 68 76 69 69 73 67 69 74
30 41 31 50 57 46 30 21 18 11 4 -10 -30 -20 -6 -18 11 31 33 46 66 82 71 71 74 85 93 93 88 78 73 71 70
61 44 48 64 54 46 25 21 15 8 1 -7 -34 -30 -0 -12 14 41 48 61 63 56 53 58 70 76 87 79 72 71 75 85 91
62 58 57 63 56 44 29 23 18 12 7 -1 -18 -26 -4 9 13 51 40 57 55 52 63 68 72 77 82 84 84 82 83 85 93
56 69 59 64 54 47 36 30 23 18 13 6 -12 -32 -30 2 65 48 44 66 63 59 66 70 70 76 79 84 87 86 88 87 85
50 33 72 65 54 45 40 40 37 29 21 11 -7 -28 -3 25 67 46 81 83 77 73 64 62 65 72 74 82 84 87 88 89 87
56 98 85 65 64 54 50 50 44 33 26 18 2 -6 17 57 88 67 100 95 88 78 73 72 70 73 74 75 79 78 79 77 80
140 104 89 77 74 60 66 59 32 13 17 48 25 26 41 65 113 90 110 102 87 79 75 75 75 73 76 83 83 77 70 68 67
95 90 84 81 70 59 65 61 40 29 44 62 50 52 90 109 133 118 135 110 88 80 75 79 81 73 74 70 73 71 69 63 59
56 103 85 64 93 49 67 67 57 63 75 66 93 115 123 116 141 133 152 130 97 84 81 83 80 74 77 69 62 59 62 60 59
60 88 95 67 115 52 90 43 92 117 105 104 140 144 141 119 163 177 158 151 114 91 87 86 77 74 71 65 58 60 64 64 65
88 112 117 112 114 97 121 97 140 135 131 135 153 149 138 122 152 170 158 153 134 101 90 93 80 76 75 71 65 68 71 76 73
112 129 127 136 140 144 144 148 163 156 165 176 169 167 162 137 127 188 178 154 148 125 107 111 93 96 85 86 81 85 87 84 74
135 141 117 140 140 162 160 174 202 202 194 186 185 193 179 160 152 154 195 156 159 145 143 164 128 109 110 104 100 94 89 80 69
162 137 113 135 154 169 187 199 209 218 192 185 197 201 197 176 177 179 183 231 219 184 215 213 202 161 144 137 125 121 115 90 77
189 175 147 145 181 188 200 200 212 218 227 226 250 235 188 176 187 192 207 240 239 286 265 237 221 194 167 164 150 147 118 105 90
216 218 183 193 212 206 215 230 238 235 244 286 295 243 236 189 200 210 225 246 271 270 279 228 227 213 213 210 191 179 137 125 115
247 255 245 203 239 245 250 248 272 276 256 306 334 248 238 221 215 227 241 278 317 285 269 274 253 247 231 229 232 193 178 181 157
225 249 265 259 245 248 244 271 293 363 301 313 243 279 296 259 255 237 233 258 312 311 303 310 326 334 327 269 218 195 197 184 169
155 241 219 236 248 236 244 266 308 348 392 382 385 229 259 310 338 305 305 313 302 331 355 363 369 351 353 331 267 206 186 170 200

GFSFLT1_con_3kmhel_081.txt.gz
Helicity
14 19 15 63 39 27 22 20 19 15 0 -4 15 30 45 23 35 45 27 28 68 68 60 74 75 68 70 66 66 62 68 69 69
30 19 39 54 44 32 20 18 12 -3 -21 -13 -2 3 -5 -22 8 16 24 30 60 64 60 73 73 76 81 78 70 57 56 61 73
35 31 58 56 50 38 24 19 10 -2 -21 -21 -2 -5 -11 2 20 25 28 48 50 54 59 65 72 78 87 86 82 83 84 83 80
44 47 59 57 54 42 29 23 12 4 -11 -21 -2 13 34 15 33 37 22 46 55 54 64 68 68 77 83 85 88 91 96 98 95
64 45 59 59 48 37 31 28 21 12 2 -7 -4 -2 67 51 50 39 45 73 69 63 62 63 70 74 82 84 88 86 86 83 88
69 61 64 61 54 46 40 37 34 25 18 9 -6 -1 28 57 55 45 89 89 84 70 66 65 68 70 77 82 85 88 90 86 80
50 52 69 64 60 49 47 51 47 40 25 17 8 30 66 47 71 68 105 109 94 77 71 71 74 73 75 76 78 78 78 81 77
64 78 66 64 62 51 51 52 36 37 37 32 31 43 67 62 86 89 113 121 105 88 83 82 81 80 82 76 74 68 68 71 72
94 91 94 88 75 69 66 55 46 42 42 54 43 71 100 116 110 102 125 123 111 89 82 85 85 87 81 79 71 65 60 60 62
113 88 91 83 83 78 69 65 53 51 52 42 56 98 123 143 136 119 136 131 117 94 83 80 82 82 79 76 73 67 63 61 65
120 101 81 69 77 65 69 64 61 59 79 104 116 144 157 150 151 145 135 142 129 108 93 85 81 75 76 74 73 76 78 72 69
99 113 92 74 67 78 69 69 93 91 100 115 151 165 164 169 162 170 149 140 143 121 101 89 81 76 80 83 76 77 79 88 90
113 110 108 87 97 85 104 88 128 145 164 159 155 170 162 170 161 172 166 153 148 133 122 110 95 88 88 86 85 89 102 98 92
140 125 121 134 146 142 141 144 173 191 192 178 184 184 179 161 203 178 170 170 167 151 127 150 123 117 109 109 104 110 101 98 95
143 146 145 158 162 154 181 176 183 206 214 197 197 186 185 185 188 216 196 186 189 177 183 204 192 168 123 130 133 126 108 99 94
162 169 167 171 172 171 181 209 198 208 251 264 240 205 190 183 201 209 250 254 221 217 225 248 252 223 181 163 147 141 123 121 131
193 203 197 199 190 175 199 241 258 215 275 293 278 229 229 207 195 220 247 274 314 303 285 290 273 254 244 223 176 160 145 156 165
229 245 238 235 218 190 225 257 271 248 258 298 294 258 219 202 206 194 240 277 320 359 338 307 285 264 265 241 219 176 178 192 173
236 236 262 257 267 232 230 261 287 346 262 318 288 334 273 217 193 196 176 231 252 279 329 287 273 257 269 235 201 182 182 155 172
197 248 243 227 270 252 238 263 277 297 312 322 366 333 363 346 307 225 241 271 279 255 308 319 362 370 383 369 284 282 198 114 157

GFSFLT1_con_3kmhel_084.txt.gz
Helicity
26 20 65 44 29 23 17 16 12 11 8 12 28 36 32 33 27 27 47 24 51 61 69 69 63 61 63 67 71 72 77 87 88
24 29 61 42 28 21 15 10 4 -0 -6 6 11 19 22 19 23 26 36 33 52 55 61 71 78 73 66 64 59 61 71 83 102
28 49 54 44 32 25 16 9 -1 1 -5 3 4 -3 16 3 11 21 20 42 53 59 55 58 65 72 76 76 74 76 78 77 84
27 48 52 44 34 29 22 10 -2 1 5 10 12 13 45 15 16 22 18 55 53 58 60 62 62 67 71 74 76 79 81 78 80
37 48 47 51 36 30 18 9 2 1 12 22 55 47 48 37 39 29 37 72 64 61 58 64 63 68 73 74 75 75 76 76 72
35 27 54 55 43 37 29 21 14 7 8 17 66 54 34 47 51 42 73 87 80 70 66 64 65 68 73 77 79 77 75 73 71
42 40 51 51 44 39 35 32 27 23 10 10 34 51 60 64 63 57 87 98 89 74 68 70 72 72 76 77 74 75 73 75 75
43 39 30 38 47 39 37 42 32 31 28 20 44 76 72 67 57 73 93 98 93 78 70 71 70 76 81 77 75 76 75 73 71
50 60 62 63 49 55 53 51 44 38 38 40 48 79 74 90 54 81 100 98 97 85 73 69 68 74 77 79 75 74 77 76 76
54 72 73 66 75 68 65 61 56 48 40 50 58 71 92 118 96 104 106 104 101 87 80 64 63 67 73 75 74 74 79 81 79
75 81 76 79 73 70 79 75 71 65 68 63 63 75 110 130 127 128 116 120 110 91 82 74 68 68 75 79 82 78 81 84 82
93 95 82 64 65 70 63 64 77 78 89 73 100 126 136 132 144 150 140 128 115 96 87 76 72 77 82 79 79 77 83 86 86
117 111 91 65 84 75 81 82 78 73 87 106 117 151 164 156 159 167 164 153 139 108 89 89 79 76 81 87 86 77 78 85 82
131 129 100 104 94 101 91 76 116 115 125 118 133 158 175 171 189 178 179 170 166 145 104 117 113 92 84 88 89 90 95 92 86
133 130 118 135 143 129 145 137 155 155 168 162 163 158 167 181 195 193 186 191 182 167 149 151 160 135 104 89 89 92 98 96 94
152 149 145 160 167 167 175 187 167 171 188 224 207 176 159 170 200 204 219 217 211 203 194 192 205 191 149 110 98 99 102 90 108
159 163 162 176 188 171 182 219 216 175 223 261 247 195 172 192 207 232 239 230 251 242 232 226 215 207 206 189 146 134 129 108 104
141 167 196 202 219 191 195 231 235 213 213 253 255 230 169 150 134 149 206 229 252 263 263 250 238 220 216 210 219 229 189 165 145
173 178 203 231 240 226 218 234 227 287 229 275 227 311 274 216 169 134 121 157 203 226 252 262 257 259 288 288 357 341 298 226 191
203 196 216 238 268 244 235 260 233 235 240 307 313 292 367 354 326 221 214 206 208 197 217 269 312 349 370 344 278 341 340 363 326

GFSFLT1_con_3kmhel_087.txt.gz
Helicity
27 55 40 25 16 16 20 18 18 8 2 7 14 15 27 14 2 21 1 2 41 52 54 56 59 50 55 63 63 73 85 96 95
21 64 40 27 17 15 15 11 4 -4 3 7 8 19 8 -1 16 29 30 17 30 41 47 53 52 53 50 49 54 59 66 77 95
18 50 40 28 18 15 12 4 -5 -8 -6 -1 -1 14 10 8 20 25 26 39 45 46 45 43 50 51 57 61 65 67 73 77 85
22 38 31 23 15 14 9 2 -8 -11 -7 -2 -7 19 20 8 7 16 19 40 49 49 53 53 53 58 65 68 69 68 66 68 71
23 29 17 18 10 7 5 5 -0 4 14 5 28 40 34 19 22 20 21 49 53 51 46 48 49 51 54 57 62 66 68 67 68
31 20 24 19 16 12 6 6 8 10 27 26 35 41 29 31 25 20 47 56 52 47 48 47 45 48 51 55 58 60 65 67 66
24 24 37 29 25 19 12 10 14 19 31 53 38 27 38 42 39 29 52 60 59 56 51 50 48 50 56 54 54 56 58 62 61
19 25 31 23 29 28 29 31 23 19 27 56 57 44 53 48 43 29 53 64 65 64 58 55 51 54 58 58 61 60 60 61 58
43 50 45 48 45 49 46 37 37 38 37 57 73 59 51 57 57 39 54 68 66 64 63 58 53 54 53 50 61 70 67 64 58
60 43 57 61 55 53 56 51 50 44 50 59 83 77 61 67 83 67 46 72 70 64 59 55 53 55 49 53 57 61 72 70 65
62 54 56 61 63 64 65 62 59 51 63 54 64 61 73 85 96 97 74 79 83 69 57 56 49 50 57 62 60 63 68 68 70
75 67 61 55 63 59 61 58 62 56 66 51 56 66 77 103 112 116 105 96 87 80 53 50 49 50 55 64 68 68 68 70 70
93 87 64 67 64 67 61 66 60 58 77 68 54 68 90 100 114 124 124 121 121 93 65 58 54 52 48 56 67 69 73 79 78
99 97 73 88 81 84 86 85 94 89 86 82 84 86 103 110 140 133 141 145 145 132 97 73 80 75 50 46 59 69 83 90 89
123 113 88 97 104 94 107 105 108 108 91 92 98 112 109 123 147 147 153 163 163 153 134 120 114 96 91 58 57 70 79 90 104
136 130 110 114 121 129 147 161 135 142 144 170 144 128 124 137 160 175 188 194 189 179 170 157 145 132 115 91 72 69 90 81 99
150 147 131 144 160 154 176 213 201 171 209 209 211 154 130 157 163 188 201 191 191 187 184 181 168 157 163 153 132 145 148 155 147
153 153 158 168 197 188 213 233 235 219 214 231 238 215 152 128 107 92 93 136 153 160 167 175 190 202 203 208 285 408 489 494 461
148 148 173 179 213 207 208 226 256 290 226 242 200 268 280 232 178 138 117 99 133 169 189 185 197 229 277 297 361 412 391 368 275
159 157 176 195 225 210 232 267 269 252 243 289 294 280 329 313 279 195 234 225 214 200 185 187 208 246 306 370 349 308 250 202 193

GFSFLT1_con_3kmhel_090.txt.gz
Helicity
40 27 20 14 5 8 1 -8 -15 -12 -10 -5 -3 1 -8 -27 -29 -23 -9 -2 29 33 37 34 32 32 31 36 45 57 68 76 86
41 26 20 12 5 2 -1 -14 -15 -11 -13 -15 -9 -5 -11 -14 2 -0 9 5 21 18 16 22 21 26 26 30 31 41 61 58 63
31 22 17 11 4 2 2 -10 -10 -15 -15 -13 -3 -3 -8 -4 6 7 2 18 30 27 28 31 30 33 34 36 39 43 45 53 61
23 13 11 5 -0 -0 -3 -14 -14 -10 -10 -13 3 3 -0 -6 -7 1 -2 18 24 30 30 27 29 33 33 37 40 43 43 44 44
15 5 -6 -3 -1 -3 -9 -10 -14 -11 -14 -11 15 23 17 3 2 3 1 22 26 27 28 26 28 30 31 36 39 42 44 44 44
2 -3 -2 4 8 6 -3 -2 4 4 9 18 30 30 10 14 10 6 16 27 27 30 32 28 31 32 33 37 37 38 41 42 47
-21 -4 14 20 22 23 20 15 30 36 23 23 32 19 24 27 23 12 20 30 32 32 35 37 34 34 39 40 44 40 38 40 43
11 -11 -7 12 23 15 27 31 30 53 48 38 31 28 33 36 31 20 14 28 38 37 36 39 35 39 42 44 45 38 43 41 41
38 36 35 31 23 23 26 34 38 46 66 58 44 36 39 41 41 30 15 22 40 42 35 36 36 40 42 46 49 50 46 46 50
54 53 48 39 41 37 35 37 37 40 54 64 53 48 41 39 48 46 28 27 35 43 41 38 34 39 43 49 51 49 50 57 60
73 70 57 42 44 43 46 46 49 48 52 57 64 46 41 42 52 58 50 37 36 39 35 38 36 36 40 48 53 53 56 62 66
84 81 64 45 51 46 50 50 52 48 53 42 61 57 49 57 59 74 74 62 44 45 32 35 37 38 35 46 57 60 64 69 71
89 80 55 58 63 59 57 59 55 49 56 55 51 63 69 65 71 85 91 86 86 66 48 44 39 43 41 37 50 58 66 73 75
89 76 65 77 74 64 70 66 76 76 71 68 61 63 67 70 85 83 92 102 104 92 68 57 55 62 49 37 36 58 70 80 98
89 81 76 93 84 68 78 84 87 90 81 85 73 73 75 96 102 103 112 122 122 115 99 91 89 72 76 52 44 48 86 93 82
115 104 99 102 97 95 114 119 115 110 117 132 100 97 102 109 119 126 131 136 130 126 121 111 108 100 85 82 63 66 90 132 100
135 128 106 120 131 120 130 163 161 144 169 185 193 146 117 119 103 118 124 125 142 140 128 130 132 132 133 131 107 104 108 152 218
123 131 140 138 156 155 179 199 202 184 187 218 242 217 141 126 101 91 84 98 130 139 133 135 130 143 156 162 191 243 247 349 418
128 143 147 164 186 179 191 205 219 259 218 241 203 240 289 228 210 166 124 125 128 135 131 118 111 130 165 197 251 278 298 309 308
145 139 159 151 190 164 190 222 222 238 238 271 272 259 293 281 254 209 190 188 157 124 123 124 122 161 167 215 250 288 309 255 225

GFSFLT1_con_3kmhel_093.txt.gz
Helicity
8 7 1 -12 -16 -18 -13 -17 -27 -27 -25 -21 -18 -28 -31 -27 -19 -9 -1 -5 10 12 14 20 27 29 26 25 34 51 55 50 58
13 7 -2 -11 -19 -19 -18 -22 -28 -27 -31 -23 -10 -6 -7 -11 -12 -9 -4 -2 4 11 19 22 22 23 25 25 40 52 56 54 58
17 9 -1 -7 -13 -13 -19 -26 -26 -21 -17 -7 -6 -11 -18 -17 -10 -5 -4 5 10 15 20 19 20 20 24 29 35 42 46 48 47
11 5 -1 -2 -6 -11 -19 -23 -16 -18 -17 -6 -6 -9 -15 -17 -17 -9 -9 0 11 13 12 13 17 19 24 29 33 35 37 41 46
-2 -11 -11 -6 -7 -11 -16 -11 -6 -12 -14 5 8 5 -7 -8 -7 -9 -5 7 8 15 13 15 18 23 27 30 33 35 35 37 37
-22 -31 -17 -11 -10 -12 -9 -1 7 10 8 20 23 5 -4 2 3 2 4 13 12 13 17 18 21 25 29 29 31 35 37 38 36
-65 -48 -30 -9 3 5 15 23 30 17 15 20 17 6 14 13 16 13 6 18 24 21 20 21 22 28 29 32 35 38 39 39 39
-33 -51 -58 -31 -10 1 14 28 17 26 26 28 21 20 22 21 20 20 8 21 31 33 27 27 27 32 33 38 42 43 45 47 45
4 -2 -9 -12 -6 13 14 23 33 34 32 29 30 29 28 27 26 24 14 14 33 38 35 32 29 34 39 47 52 52 53 54 55
28 19 18 19 19 22 30 40 41 42 44 41 33 36 37 35 30 33 30 21 25 34 37 41 28 32 39 51 58 61 59 61 60
52 48 39 38 39 44 46 46 45 44 46 48 47 44 42 36 36 42 45 34 29 28 30 40 41 36 40 51 58 64 64 62 68
67 63 52 49 53 56 53 52 48 41 44 45 49 51 44 41 42 49 54 57 44 33 24 34 43 44 37 46 55 60 72 82 86
73 70 56 58 61 60 55 53 48 41 41 47 55 61 58 52 50 52 55 58 63 57 34 27 34 44 41 35 48 62 68 76 83
66 59 54 59 62 59 56 57 52 56 49 55 56 58 55 58 61 55 57 58 63 66 66 45 42 50 50 43 38 58 78 89 82
59 53 53 61 64 58 58 61 68 60 60 68 58 58 54 66 73 67 71 70 71 72 70 76 70 59 59 52 51 62 97 109 96
52 53 60 68 60 62 75 85 79 79 92 99 79 82 75 83 89 89 86 84 84 86 89 92 91 88 72 64 52 56 74 143 140
63 61 66 68 69 69 84 106 123 104 125 144 138 101 100 104 92 84 79 74 70 76 87 84 84 86 98 99 73 66 70 108 203
70 67 69 78 92 96 112 133 134 121 149 146 188 172 128 134 114 88 77 79 87 50 67 71 90 97 95 99 104 104 107 106 115
65 75 73 80 108 115 133 142 134 152 149 191 161 195 260 216 199 178 142 132 114 115 104 105 100 116 123 136 127 127 137 148 250
99 113 105 112 142 124 141 147 165 159 185 206 248 221 245 258 252 219 178 137 160 128 123 122 106 123 103 135 114 139 158 156 169

GFSFLT1_con_3kmhel_096.txt.gz
Helicity
9 1 -8 -15 -20 -19 -13 -19 -14 -14 -14 -20 -26 -27 -28 -34 -1 2 -8 -8 -4 1 5 8 12 22 29 35 39 45 47 46 49
2 -7 -19 -26 -24 -17 -18 -14 -20 -17 -12 -10 -9 -18 -46 -15 -12 -7 -5 -0 7 14 18 20 20 26 35 36 39 46 53 53 52
-3 -7 -19 -18 -14 -16 -17 -14 -12 -5 -6 -9 -11 -24 -48 -22 -12 -10 -5 1 10 15 16 19 19 23 25 32 39 45 51 54 50
-5 -10 -21 -16 -15 -15 -17 -10 -6 -7 -8 -10 -12 -20 -45 -14 -15 -10 -2 3 15 17 16 17 19 23 28 33 36 46 50 52 51
-10 -21 -25 -24 -22 -17 -17 -12 -11 -11 -4 -0 2 -8 -25 -1 -2 -3 6 12 19 20 21 23 26 28 29 31 37 41 47 50 56
-24 -13 -23 -25 -24 -22 -15 -6 -3 8 9 16 10 -3 -0 5 4 12 11 22 25 28 27 28 29 29 29 31 35 39 44 52 57
-43 -28 -27 -26 -21 -18 -4 9 6 -7 15 19 13 7 14 17 18 31 16 29 31 34 35 34 34 32 32 34 36 41 49 55 56
-60 -66 -63 -45 -30 -21 -8 -1 -3 5 17 24 23 20 21 25 30 48 21 31 41 39 37 36 37 36 36 40 43 48 52 54 55
-36 -41 -34 -38 -36 -21 -18 -9 4 15 23 31 32 30 31 29 30 55 31 24 42 44 44 38 40 40 40 47 54 55 57 62 70
-0 -0 -1 -8 -4 -4 -3 6 19 23 28 34 38 40 37 39 37 35 62 33 38 47 49 50 43 44 47 51 55 60 69 79 85
33 33 29 31 27 28 27 27 29 34 36 42 43 44 45 40 40 41 60 60 44 45 47 53 52 50 50 54 54 62 74 77 79
66 67 65 60 55 51 48 43 41 41 46 45 47 48 45 46 44 50 49 73 61 47 42 49 59 56 54 60 61 63 62 66 69
85 85 77 74 70 60 55 50 50 49 54 56 56 51 49 41 46 56 57 60 61 81 55 48 54 62 56 49 72 67 67 66 69
87 90 89 82 73 64 61 53 52 69 63 59 54 53 50 48 54 52 63 66 69 70 115 73 60 59 56 49 51 72 80 81 75
97 102 90 83 74 66 60 53 68 69 67 69 63 60 58 56 56 59 74 78 78 77 76 94 80 70 61 50 49 57 110 119 89
90 92 78 68 60 55 58 74 74 74 75 88 75 74 65 63 67 74 79 87 82 71 66 70 68 86 84 66 49 44 60 133 142
58 56 57 52 63 60 66 75 88 86 95 108 115 95 102 95 90 83 81 68 72 66 55 42 52 74 86 77 62 55 60 84 184
47 46 47 54 60 68 72 82 92 104 108 91 121 123 106 148 134 114 111 112 116 100 105 97 99 101 100 130 113 123 96 74 90
54 54 50 50 59 58 81 95 90 109 130 143 126 120 205 151 165 170 180 161 149 120 151 127 129 130 123 115 110 84 86 78 77
63 52 66 59 68 64 82 106 129 156 155 158 189 165 173 182 211 212 186 179 158 143 114 150 125 129 149 132 134 104 89 100 88

GFSFLT1_con_3kmhel_099.txt.gz
Helicity
10 3 3 10 4 2 3 -4 -8 -6 -9 -14 -13 -22 -21 -33 9 1 4 3 10 15 24 28 31 34 35 36 36 45 46 51 53
4 -3 -7 -3 -1 -9 -10 -6 -4 -4 -3 -4 -14 -18 21 3 6 9 8 14 22 23 27 30 36 39 41 44 44 49 56 55 58
1 -4 -13 -9 -7 -12 -16 -13 -2 9 9 -1 -18 -43 -34 -1 3 4 2 8 16 19 21 27 34 39 44 51 51 51 53 56 63
1 -7 -16 -13 -13 -12 -7 -1 -1 -1 -4 -11 -21 -40 -23 -4 -11 6 1 8 17 21 23 27 32 38 41 47 51 51 53 54 59
-3 -18 -21 -20 -9 -9 -11 -9 -13 -7 -6 -6 -15 -28 -27 7 9 9 6 19 23 25 27 30 35 38 43 47 49 51 50 50 51
-26 8 -11 -11 -11 -13 -13 -12 -10 1 1 -1 -9 8 6 18 24 23 18 29 32 33 32 34 39 41 46 49 49 46 47 47 47
-11 -7 -12 -15 -18 -21 -14 -8 -2 -3 10 6 4 11 23 34 45 41 31 37 38 36 36 40 42 47 53 55 53 52 53 51 55
-22 -24 -32 -30 -30 -22 -10 -4 -1 2 11 23 15 18 37 43 52 59 42 46 48 45 43 45 49 55 61 61 62 65 65 62 58
-44 -51 -47 -36 -41 -20 -18 -8 -1 7 11 24 29 32 45 48 49 76 58 48 57 56 58 56 56 57 61 66 71 76 74 67 63
-9 -29 -22 -20 -24 -10 -12 -5 13 15 21 22 33 42 46 58 57 83 85 61 55 61 61 59 59 59 62 68 75 76 78 73 76
16 19 41 20 23 21 21 24 27 25 25 35 41 47 53 52 61 66 84 90 68 62 64 65 64 65 67 72 73 74 78 76 73
57 55 54 49 53 58 58 54 44 38 38 35 39 48 49 59 62 62 70 93 92 74 67 71 71 67 65 68 70 68 66 62 63
74 85 80 85 96 91 84 69 58 49 46 47 48 51 52 45 47 65 62 80 98 93 84 69 73 73 60 59 81 81 67 61 55
87 95 104 107 112 104 96 84 68 67 56 56 56 55 50 53 46 50 60 82 95 103 144 103 88 83 71 57 78 88 83 78 71
93 106 115 126 118 109 105 89 77 71 68 66 59 55 56 59 59 64 68 82 111 99 134 131 103 82 75 59 42 49 100 102 81
82 102 102 118 120 94 82 83 84 81 78 80 70 69 63 74 78 80 79 109 104 92 89 102 94 117 88 72 34 31 48 109 124
79 89 110 100 110 85 84 85 96 93 92 95 102 96 84 88 86 94 99 86 124 116 112 99 97 94 132 103 80 75 81 66 114
78 79 86 77 76 80 79 82 96 94 97 85 122 128 101 164 150 118 129 129 147 171 166 140 156 162 163 197 160 91 111 87 59
80 70 70 68 76 63 71 82 84 82 107 132 124 111 171 189 162 205 167 195 205 239 232 213 196 174 144 157 117 130 116 91 75
134 77 58 79 75 83 74 87 84 100 114 135 146 143 171 187 206 227 269 224 221 255 240 238 191 188 176 146 128 174 129 97 79

GFSFLT1_con_3kmhel_102.txt.gz
Helicity
23 26 15 9 6 14 20 16 14 0 -10 2 16 30 -12 39 20 23 29 0 32 32 33 36 36 37 42 48 54 59 55 53 54
16 13 -1 15 8 3 7 6 3 -8 -13 2 34 90 36 22 15 11 2 1 26 27 29 29 34 37 45 55 61 62 63 64 60
7 -3 8 10 2 1 0 4 11 -5 -13 -13 8 13 -17 4 1 -5 -6 12 23 25 28 31 38 46 52 56 56 58 61 59 59
-1 -4 6 4 1 -2 -1 10 10 -9 -19 -31 -23 5 18 9 -22 -1 -12 11 23 27 31 36 41 46 48 49 50 55 53 56 51
0 -5 1 2 5 2 2 0 -6 -15 -22 -34 -45 -47 -56 23 17 2 -2 25 27 30 32 38 42 49 49 52 50 54 52 55 48
-14 -4 1 5 -4 -3 -3 -8 -8 -8 -13 -31 -24 -19 -11 37 21 12 27 34 38 39 40 45 49 52 53 54 58 60 55 52 45
21 11 -1 1 -9 -3 -6 -7 -1 2 -11 -25 -4 5 27 52 41 23 41 46 48 50 50 53 58 58 61 66 69 64 59 55 50
6 -6 -19 -20 -22 -21 -14 -12 -17 -14 3 17 26 15 40 63 52 43 53 58 58 57 56 60 62 67 69 75 78 70 68 63 60
-15 -39 -41 -29 -44 -6 -17 -16 -6 -3 10 21 28 37 50 74 79 63 67 64 66 66 65 67 66 68 74 79 80 76 75 68 66
-15 -48 -28 -30 -44 -4 -14 2 13 18 13 22 51 58 52 69 90 72 80 76 75 74 74 70 70 71 75 78 79 79 78 72 72
-11 -49 -18 3 -4 23 17 28 47 36 35 43 53 56 48 62 83 95 71 87 83 77 75 71 72 74 79 80 79 76 76 74 69
48 55 77 49 59 66 67 62 73 68 60 55 55 58 50 65 71 96 95 83 88 92 83 82 77 74 75 80 78 72 66 67 66
95 103 68 74 94 107 117 116 98 79 84 69 47 62 51 61 69 71 104 107 97 88 93 92 89 82 70 73 82 76 71 64 56
104 106 107 102 136 132 133 114 105 89 87 82 68 75 58 42 43 55 80 103 140 129 98 102 103 103 86 63 81 86 75 62 52
112 116 126 135 151 135 137 122 114 108 94 85 79 60 51 49 56 62 73 89 126 137 155 135 117 108 108 76 54 67 98 99 91
111 124 126 135 135 117 114 115 118 104 105 123 93 64 56 73 75 78 80 90 139 140 142 159 153 130 93 93 65 46 53 105 130
138 118 123 120 134 113 114 119 122 102 90 103 99 79 80 67 77 90 82 87 126 148 136 162 166 174 153 127 94 91 72 36 84
112 105 116 115 134 128 109 103 120 107 84 85 102 96 75 83 85 83 125 142 168 178 197 232 271 267 283 227 165 118 125 29 32
94 121 112 110 121 119 98 94 126 123 97 103 90 83 105 108 105 156 161 221 247 260 296 299 260 209 216 218 211 148 104 62 54
157 106 138 172 121 107 112 104 131 114 94 95 132 118 121 122 158 191 236 266 266 314 323 297 264 247 230 225 224 182 112 79 114

GFSFLT1_con_3kmhel_105.txt.gz
Helicity
29 25 23 18 11 18 15 10 9 19 41 42 40 87 35 12 23 13 -2 -11 23 28 28 31 36 37 42 44 43 48 49 50 49
18 11 10 -4 8 13 9 -1 -1 22 38 69 49 34 12 -3 3 -11 -17 -10 19 23 24 26 31 37 42 40 43 44 46 47 43
10 11 -3 6 14 10 5 -5 0 10 18 28 5 -8 2 -9 -15 -19 -21 7 22 25 29 34 35 38 39 42 45 44 44 44 43
12 6 10 17 9 3 6 1 -9 -16 -6 12 15 10 8 -35 -29 -18 -24 11 27 29 33 39 40 40 41 45 45 45 44 43 43
11 9 15 15 23 12 0 0 -14 -28 -26 -23 -7 12 8 -7 -5 -14 -10 26 35 36 39 43 46 47 49 48 49 48 49 49 48
23 4 28 27 14 0 -3 -9 -16 -24 -26 -35 -38 -2 -5 -3 -4 -7 17 32 40 44 48 50 51 54 56 54 57 56 57 56 54
20 9 22 20 -5 -17 -12 -8 -6 -13 -26 -31 -23 0 7 6 9 2 25 37 44 50 52 56 60 63 63 65 65 67 69 67 62
18 27 8 -9 -18 -31 -28 -18 -18 -10 -18 -11 -18 3 13 16 13 21 40 43 49 55 57 59 63 65 67 72 73 72 74 75 75
-4 -7 -15 -30 -39 -30 -29 -28 -12 -2 -3 -5 6 31 53 41 31 33 58 59 61 61 61 60 62 65 68 71 71 74 77 79 77
-16 -25 -43 -50 -45 -44 -41 -33 -14 -3 13 18 34 58 71 68 44 47 65 71 71 71 68 66 63 65 67 69 71 75 76 79 79
6 -11 -38 -50 -31 -38 -17 3 7 26 38 38 54 58 67 82 70 64 53 70 79 79 78 75 75 75 76 82 78 72 70 71 71
-5 -9 -7 -32 -13 1 5 35 52 61 61 61 50 57 57 61 89 78 69 69 74 78 86 87 88 88 90 87 81 67 61 61 60
40 19 22 12 33 54 62 83 94 81 69 65 60 52 58 47 61 81 84 83 83 73 70 91 94 96 93 94 86 64 67 67 61
90 97 72 90 97 107 114 119 104 91 80 60 60 47 48 57 63 56 81 92 109 101 79 79 95 111 101 83 77 88 88 76 73
116 133 124 124 140 145 145 130 119 110 91 82 76 58 49 44 40 40 59 92 111 122 117 105 94 100 118 89 58 67 104 119 92
125 123 143 153 160 140 134 145 133 126 130 134 95 68 44 44 42 51 55 62 95 137 138 139 136 119 108 87 63 53 39 83 124
141 134 126 142 159 145 133 144 148 116 108 132 131 112 104 67 46 57 61 62 88 115 133 153 151 134 120 115 88 75 49 31 48
212 174 154 141 145 139 127 129 130 138 122 100 133 136 106 93 84 54 63 63 107 140 167 226 252 238 220 195 165 131 85 65 54
189 154 154 162 151 124 101 128 146 171 148 129 70 85 107 109 94 92 121 133 166 219 285 303 299 272 259 242 243 204 150 103 70
184 185 171 233 265 237 260 172 127 157 165 140 263 127 116 116 129 122 112 183 237 281 288 291 276 272 245 235 225 200 145 80 60

GFSFLT1_con_3kmhel_108.txt.gz
Helicity
69 59 54 35 20 37 30 28 27 30 -4 14 31 23 24 27 9 -6 -11 -19 11 17 21 22 30 31 35 39 39 39 35 35 34
39 35 24 12 21 15 19 21 31 40 38 33 18 5 11 -1 -7 -18 -28 -21 12 18 21 25 30 32 35 37 36 35 35 38 35
33 14 3 8 8 2 11 19 28 30 16 19 6 1 -3 -14 -18 -26 -32 -3 12 18 22 26 29 31 33 34 37 36 41 41 40
19 4 -9 4 -5 -8 4 7 8 25 33 3 -7 -10 -14 -24 -32 -29 -36 1 17 22 27 28 32 33 36 35 40 41 42 45 45
10 39 22 7 5 -0 -0 -8 -12 6 21 18 5 -3 -6 -18 -19 -25 -21 16 25 28 33 35 37 42 42 44 50 45 48 53 52
18 20 27 24 10 7 -6 -27 -26 -12 6 9 6 2 -26 -16 -21 -23 10 26 32 33 36 41 43 48 52 53 55 56 60 63 67
5 19 17 25 12 -0 -15 -36 -34 -27 -21 -13 12 -6 -12 -10 -9 -12 19 32 34 38 42 43 46 51 54 56 58 62 69 70 73
22 19 -0 -2 -6 -16 -35 -44 -53 -38 -27 -13 -8 14 -5 -11 -3 8 31 39 41 42 42 46 47 50 55 58 63 69 74 75 77
14 3 -17 -23 -31 -19 -41 -58 -52 -49 -32 -19 -0 40 21 11 13 14 42 43 47 49 47 46 46 47 52 60 68 71 74 74 74
-0 -19 -30 -38 -33 -40 -45 -43 -41 -43 -42 -20 6 34 33 36 28 20 43 45 49 47 49 49 48 49 56 65 70 72 69 72 75
-27 -32 -56 -54 -41 -35 -23 -13 -8 -7 9 16 33 47 45 48 43 31 29 43 45 49 48 50 52 52 62 73 79 74 68 69 68
-30 -30 -37 -46 -34 -20 -7 -4 3 22 39 47 45 50 61 55 49 43 43 40 48 48 48 49 56 57 66 78 76 69 66 71 71
7 -7 -26 -14 -1 9 21 29 46 43 54 62 56 50 46 59 52 54 50 51 54 46 36 59 59 60 66 77 74 62 68 74 66
28 18 -2 22 33 38 55 63 86 85 71 62 57 50 55 45 60 60 58 59 68 69 51 53 74 79 76 66 90 90 85 75 64
47 48 60 86 93 85 110 126 119 107 91 81 67 59 56 63 52 56 67 69 85 84 81 80 80 87 88 71 55 46 88 122 93
91 103 119 127 155 145 143 162 149 139 131 135 95 73 60 50 47 47 50 67 75 90 92 104 102 104 90 84 62 34 20 71 108
123 128 129 150 163 169 171 184 183 146 148 154 156 131 121 82 47 57 44 55 79 82 90 118 105 115 132 98 74 57 43 9 29
134 137 134 139 149 159 165 169 164 147 143 146 174 179 149 144 133 102 72 72 78 81 106 133 133 160 149 151 145 126 93 69 46
195 212 263 194 176 167 139 138 164 167 125 153 115 138 146 189 186 156 143 107 107 127 162 198 238 259 185 198 222 181 167 125 85
172 201 175 181 197 155 216 262 300 182 162 189 202 143 184 172 166 243 167 135 132 160 189 214 251 263 132 231 199 180 151 107 59

GFSFLT1_con_3kmhel_111.txt.gz
Helicity
109 84 92 79 57 46 37 8 7 22 27 24 20 27 23 20 2 -5 -11 -23 5 11 14 19 22 26 27 28 28 31 31 32 36
78 81 67 50 40 37 18 8 16 17 17 12 16 20 13 -11 -13 -18 -25 -22 8 10 14 17 21 22 24 25 24 32 28 30 34
53 56 41 29 29 23 20 20 30 27 10 7 10 8 -5 -19 -22 -22 -29 -11 6 10 14 17 20 23 25 24 27 30 32 32 36
34 28 27 15 13 15 17 20 15 9 -2 -6 -1 -0 -7 -27 -36 -33 -38 -7 11 17 20 22 26 29 30 27 32 30 38 41 40
10 -3 4 5 1 9 1 6 11 -1 -6 -4 -2 -3 -6 -24 -25 -32 -30 7 17 23 25 31 32 34 32 35 38 39 44 48 51
41 14 8 -0 -8 -7 -10 -5 4 5 -8 -4 -0 -3 -28 -24 -27 -33 -3 17 25 30 31 33 35 38 34 40 41 47 52 57 59
35 27 17 -1 -23 -19 -23 -12 -0 -13 -28 -31 -5 -21 -22 -23 -21 -25 7 23 29 32 33 32 34 36 36 44 47 50 54 63 65
41 27 20 -11 -33 -41 -40 -26 -24 -29 -33 -25 -16 -12 -13 -21 -17 -11 9 24 28 30 30 29 32 35 35 39 45 52 59 69 69
32 2 -15 -28 -47 -39 -43 -36 -37 -38 -32 -29 -12 1 -0 -10 -10 -9 14 17 24 26 27 25 24 29 34 41 50 57 60 66 66
8 -12 -33 -48 -53 -54 -45 -39 -34 -39 -31 -24 -1 17 20 16 7 4 14 20 22 22 22 20 23 29 37 42 49 56 63 65 67
-4 -16 -38 -50 -55 -42 -26 -14 -13 -21 -16 -4 6 20 22 33 30 21 13 26 29 30 28 28 30 36 41 49 59 63 65 64 68
-3 -15 -39 -49 -38 -17 -1 5 6 -1 10 13 32 35 26 35 37 31 25 23 29 29 34 35 37 38 44 47 53 64 64 66 70
3 -18 -37 -27 -11 6 14 22 16 21 34 37 38 46 44 37 36 41 41 38 39 32 32 43 42 44 41 50 47 57 61 68 64
6 -8 -17 7 16 25 37 43 54 61 60 54 59 57 57 53 51 43 50 49 46 45 31 37 47 54 47 38 54 66 90 79 77
20 10 23 41 47 43 67 73 84 84 88 86 77 69 61 66 63 63 58 56 54 55 52 50 51 49 56 37 17 26 63 92 100
33 37 60 69 67 53 71 110 113 102 116 132 110 86 71 77 73 69 64 66 63 68 77 75 69 61 43 51 24 33 26 36 67
62 60 63 78 102 114 136 160 160 134 144 157 158 125 120 112 90 95 84 80 85 73 71 89 79 78 80 77 54 47 40 21 21
100 99 122 125 123 139 147 167 171 171 143 167 172 158 132 133 147 141 109 100 92 69 79 87 93 103 100 99 93 42 62 83 57
124 116 158 148 140 168 160 141 190 209 158 172 167 171 141 185 233 205 205 167 112 87 117 124 147 150 147 142 130 130 117 114 95
147 160 180 178 135 176 219 273 219 135 171 279 295 370 213 182 318 279 199 239 149 140 132 124 152 159 192 173 141 138 87 103 87

GFSFLT1_con_3kmhel_114.txt.gz
Helicity
112 114 128 115 60 44 30 22 17 15 23 18 15 20 25 16 -8 -14 -17 -23 12 15 14 16 17 21 23 22 22 21 20 23 26
94 104 111 73 46 34 21 19 27 27 13 12 11 10 14 -10 -18 -25 -33 -25 11 12 13 13 16 18 18 21 20 21 21 22 23
71 87 74 52 36 21 16 10 18 12 6 6 1 -2 -0 -13 -21 -24 -29 -5 9 10 12 14 16 19 21 21 22 24 26 27 31
44 53 44 28 30 22 16 15 5 -4 -3 -7 -11 -8 -3 -17 -29 -29 -35 -0 11 15 15 19 19 26 24 25 27 27 30 36 37
32 28 17 12 25 26 10 -1 -4 -11 -9 -11 -11 -7 -0 -18 -22 -31 -29 6 11 18 18 24 24 30 28 30 28 30 38 40 42
31 8 -5 2 21 19 10 -0 -6 -8 -13 -14 -12 -10 -21 -21 -26 -31 -7 9 17 19 21 23 28 30 28 31 32 37 43 44 42
6 -1 6 16 15 2 -3 3 -0 -16 -32 -30 -15 -22 -19 -20 -23 -30 -4 12 18 19 20 23 25 24 28 34 39 43 44 48 42
50 27 15 -1 -1 -6 -7 -14 -26 -26 -31 -29 -23 -19 -21 -22 -27 -22 -2 13 17 17 16 17 19 23 32 40 46 48 48 48 50
47 23 -3 -13 -25 -15 -21 -33 -28 -30 -29 -20 -16 -13 -19 -16 -24 -27 -3 6 14 14 14 14 16 19 23 34 46 47 49 54 51
38 29 -4 -12 -19 -34 -40 -45 -42 -33 -25 -23 -14 -5 -5 -5 -12 -18 -8 6 14 17 20 20 22 27 29 33 42 52 48 49 54
36 23 -2 -17 -37 -48 -43 -31 -19 -14 -14 -15 -7 11 11 10 7 -0 -7 2 11 19 20 23 32 38 40 37 41 53 51 44 54
38 21 -3 -24 -23 -21 -15 -9 3 2 3 6 8 16 20 25 22 18 16 10 9 11 14 26 30 34 37 34 39 45 46 38 40
39 15 -10 -6 -1 -2 -1 11 13 16 19 30 28 35 42 39 46 41 37 35 30 18 11 27 38 37 29 42 46 43 49 47 41
25 1 -2 11 10 10 23 31 35 28 34 38 52 53 55 52 65 57 57 56 54 49 28 21 32 41 32 28 42 50 52 72 60
29 13 11 26 31 33 47 48 55 56 60 66 64 69 73 77 78 72 77 72 63 62 55 49 46 37 39 16 -4 7 44 96 72
38 38 43 53 45 40 45 74 75 77 101 117 91 81 82 100 107 95 95 91 77 78 76 72 66 61 46 45 17 -0 1 56 89
42 58 53 57 61 65 86 108 107 96 116 130 129 96 99 103 102 127 119 95 96 83 81 75 70 71 84 77 37 4 -12 -7 -7
65 63 77 74 86 83 90 103 121 113 98 134 137 119 79 76 60 110 123 120 121 91 87 76 80 84 96 86 69 58 53 37 26
100 103 104 102 99 107 97 134 122 131 149 153 99 160 212 142 171 122 108 118 124 119 149 89 96 86 100 111 136 109 81 61 54
77 131 108 106 87 91 110 118 140 191 138 189 160 181 266 247 217 162 192 131 196 252 206 173 153 142 210 114 124 121 99 85 65

GFSFLT1_con_3kmhel_117.txt.gz
Helicity
69 92 111 87 60 36 24 32 22 22 22 22 21 16 11 2 -1 -1 -2 5 11 20 22 22 16 17 18 17 19 18 18 17 22
108 111 100 75 43 33 18 16 22 19 15 15 16 6 0 -4 -2 -4 -6 2 12 15 17 18 16 22 18 21 23 21 22 23 27
103 89 79 59 38 20 28 23 16 3 7 8 11 1 -10 -8 -2 -6 -7 -2 10 14 17 18 22 24 25 30 31 31 31 30 34
67 70 55 46 22 3 13 10 5 -4 4 -1 0 -5 -9 -8 -13 -12 -14 -3 13 19 19 24 25 28 31 37 38 36 35 37 41
56 51 36 34 28 21 21 4 0 -3 -1 -2 -3 -4 -9 -8 -13 -17 -12 3 15 21 23 24 30 33 35 38 38 38 39 40 44
35 25 36 41 37 27 13 1 3 2 -4 -7 -7 -19 -21 -13 -15 -14 -8 8 16 19 20 23 26 28 33 34 38 40 45 45 48
15 30 44 51 50 30 14 2 5 -11 -20 -22 -16 -18 -12 -10 -12 -13 -9 4 9 11 13 20 22 26 32 40 49 52 51 54 54
36 29 37 37 29 2 0 -7 -18 -21 -20 -20 -17 -14 -12 -14 -15 -15 -13 -2 3 4 8 13 16 21 25 37 50 54 59 54 49
41 13 35 21 -2 2 2 -12 -13 -25 -28 -19 -12 -13 -12 -16 -17 -15 -16 -4 3 7 9 10 14 17 24 33 37 45 55 57 53
36 17 26 17 9 -12 -8 -23 -27 -33 -32 -36 -26 -17 -10 -7 -11 -12 -15 -2 7 11 12 14 17 22 28 31 31 30 39 45 44
47 42 21 13 -6 -16 -31 -36 -35 -29 -20 -20 -16 -12 -7 -6 -1 1 3 -2 9 16 20 21 24 27 30 30 28 26 26 32 33
45 54 27 -1 -13 -21 -26 -24 -14 -11 -6 -5 -3 6 9 12 13 14 16 18 11 10 19 28 29 29 28 30 27 24 17 23 33
36 36 20 11 -6 -23 -22 -12 -6 -1 1 8 13 16 24 23 31 37 40 40 39 35 16 24 33 33 34 34 33 18 16 11 24
23 21 20 9 4 -5 3 15 15 10 16 20 27 33 35 38 48 46 50 54 58 57 52 32 28 39 36 31 38 47 48 37 34
31 23 15 16 13 21 27 34 39 41 31 40 37 43 45 56 63 65 76 75 74 68 64 65 52 40 40 38 18 30 53 67 62
35 28 20 17 18 28 38 60 49 45 61 63 50 52 60 76 80 79 88 101 96 91 82 79 77 66 47 41 24 14 15 47 50
46 35 38 34 44 49 58 64 74 61 70 74 72 61 57 74 58 58 82 93 140 122 88 80 73 72 69 55 50 20 17 21 11
57 47 59 54 62 68 65 57 61 75 83 72 87 64 56 96 58 64 93 58 109 117 98 81 76 86 92 66 52 39 80 79 24
78 75 76 75 85 69 63 73 86 55 87 115 94 137 142 69 22 82 95 61 102 93 88 95 110 168 163 119 97 96 137 62 56
93 104 103 110 104 82 82 83 92 107 117 134 102 76 112 113 139 98 147 105 95 136 130 159 184 204 207 147 132 169 93 92 52

GFSFLT1_con_3kmhel_120.txt.gz
Helicity
91 71 80 85 83 57 51 38 26 21 13 10 15 17 -0 -20 6 10 15 15 14 19 21 26 27 28 29 29 28 34 42 40 38
92 88 101 81 61 47 41 33 28 19 11 12 15 4 -32 -1 5 13 14 10 14 20 21 30 28 32 32 32 36 36 43 42 46
112 97 95 63 40 25 40 36 25 14 11 8 11 -5 -21 -4 9 14 14 5 15 23 26 34 33 36 33 39 41 43 52 50 56
113 100 80 58 33 37 45 37 14 10 11 7 3 -14 -7 4 6 9 4 6 19 25 29 31 33 36 35 38 45 51 56 57 56
109 99 70 51 33 50 48 28 15 9 6 8 -1 -12 -34 11 9 14 14 13 22 22 27 25 26 26 30 38 46 52 57 55 52
52 54 70 56 39 53 39 32 25 16 9 6 -11 -26 2 7 10 13 10 10 16 18 18 17 17 23 29 37 43 47 49 50 49
34 73 83 74 71 62 37 35 19 -18 -6 -9 -20 -4 5 8 9 10 -0 4 5 7 7 9 12 16 21 30 36 43 47 47 47
40 60 48 42 29 25 24 10 -2 -8 -11 -15 -7 -2 2 1 1 8 -7 -0 -0 1 4 6 11 15 20 29 35 42 44 42 45
23 68 35 37 5 13 11 -2 1 -5 -6 -8 -4 -8 -6 -4 -4 8 -8 -0 2 4 6 11 14 21 25 29 31 35 36 37 37
34 77 38 29 20 6 10 -3 -7 -12 -14 -12 -10 -9 -7 -3 -1 7 1 1 5 11 16 19 26 29 31 30 27 24 21 23 30
64 82 49 32 16 2 7 -3 -15 -22 -25 -25 -20 -13 -7 -4 4 9 23 9 13 18 24 27 30 35 36 34 28 19 14 10 14
50 72 42 26 18 8 4 -12 -24 -18 -10 -12 -5 -3 3 5 9 18 24 47 29 21 27 34 39 40 38 38 28 17 6 4 11
53 63 31 23 23 11 -14 -20 -17 -8 -2 1 5 4 10 13 21 31 36 42 48 58 31 36 45 47 44 44 37 24 26 15 20
50 37 30 23 25 4 -14 -8 -2 -1 6 8 10 13 17 24 31 32 43 52 61 66 102 60 50 52 47 39 41 43 52 46 29
44 52 32 22 15 -5 -0 4 16 15 15 15 14 22 27 31 35 40 50 58 70 76 88 110 79 62 58 46 28 16 45 52 50
50 41 33 23 14 8 18 18 17 28 33 23 23 25 31 35 42 48 44 43 54 78 91 113 113 110 81 60 45 16 12 39 45
63 50 37 33 39 28 31 38 46 39 43 44 52 52 44 39 41 53 38 36 83 98 94 69 99 100 92 83 85 72 50 53 47
81 70 59 55 58 50 53 50 52 55 53 49 82 77 61 59 69 101 45 33 73 130 89 65 58 59 80 83 114 117 124 87 54
91 79 69 65 73 66 66 72 75 80 87 91 71 69 80 20 30 80 17 46 59 84 91 78 54 71 80 87 150 158 140 117 94
101 90 81 79 84 82 86 99 107 121 101 106 62 42 63 17 63 23 37 22 95 116 104 142 119 130 187 232 243 196 230 165 135

GFSFLT1_con_3kmhel_123.txt.gz
Helicity
72 56 59 81 72 62 77 65 43 33 20 17 9 -5 -30 -4 23 18 33 26 23 20 22 26 31 37 39 37 40 44 45 50 55
86 84 91 96 70 63 61 55 43 30 19 17 4 -28 -5 4 17 22 21 17 20 19 24 28 34 33 37 37 40 40 49 50 44
114 103 97 104 69 51 52 49 43 28 20 19 -7 -12 28 15 27 26 22 18 21 25 26 26 31 32 37 38 42 43 43 39 46
105 97 94 93 71 57 59 44 36 26 27 14 -14 1 72 18 12 10 9 20 28 25 24 27 29 31 36 37 38 41 44 43 49
101 109 91 91 85 78 72 41 30 25 25 8 -11 -22 -9 18 24 30 18 24 28 26 20 25 27 31 33 37 40 40 43 47 48
83 82 106 105 106 90 68 39 36 30 23 -6 -36 -27 7 13 19 19 20 23 22 23 16 17 20 22 27 33 38 43 49 49 48
84 107 115 97 104 84 59 36 26 -7 9 -10 -26 -16 11 17 24 22 13 15 13 12 12 9 13 19 25 29 32 39 42 45 47
143 109 93 82 74 61 46 24 -3 -5 -0 -3 -3 3 13 10 15 13 2 7 9 7 8 10 14 19 22 24 27 32 34 34 34
110 92 75 64 50 46 30 6 4 -5 -4 1 2 2 4 4 5 7 2 9 12 11 15 16 20 22 21 22 26 30 29 29 29
82 78 89 56 52 31 17 13 8 6 1 2 2 2 -2 6 1 11 12 11 18 20 24 25 27 29 32 32 30 28 29 26 21
106 91 83 67 64 38 20 20 11 12 3 -3 -3 -6 -2 -0 8 25 19 19 20 25 32 34 36 38 46 44 36 31 30 30 21
163 144 95 100 59 31 31 26 20 9 -3 -14 -13 -8 -1 1 9 21 46 41 32 28 41 48 49 49 52 50 44 35 32 20 26
115 175 140 91 76 58 47 32 17 -1 -1 -3 -2 5 8 11 21 31 33 50 53 52 39 48 60 63 61 58 56 44 39 33 30
75 159 116 80 95 78 53 33 14 7 6 10 12 12 16 17 24 29 35 43 48 66 99 71 64 61 60 56 60 60 57 53 49
69 123 92 109 98 73 54 30 36 18 19 16 13 14 17 21 30 27 32 45 64 46 70 95 88 72 55 44 40 44 61 69 65
100 130 123 114 90 71 48 55 33 45 56 24 19 23 27 28 30 48 38 51 61 53 67 97 109 108 89 67 39 33 32 47 54
131 168 164 102 94 59 46 36 51 49 56 39 57 42 57 51 40 32 41 71 49 52 74 93 102 84 119 73 66 61 53 61 85
192 136 149 103 98 71 59 69 64 67 69 76 96 70 99 78 62 59 83 54 62 49 88 92 89 88 87 106 93 85 105 126 136
193 157 125 103 115 92 94 92 79 88 75 91 91 104 114 78 66 86 42 46 78 102 81 104 109 146 129 153 171 152 163 193 249
163 144 135 125 134 122 104 110 100 112 140 111 115 102 92 39 45 32 52 46 101 104 118 135 158 174 174 155 152 158 172 267 339